Wetterdaten: aktuell Donnerstag, 02.04.2020 17:40
Datum Zeit Temp. 2m Temp. 5cm Temp. -10cm Temp. 2m alt Feuchte A. Luftdruck Regen Wind Richtung Richtung Taupunkt Windchill Windben
02.04.2020 17:40 15,2 C 24,7 C 5,4 C 0,0 C 34 % 1011,6 hPa 0,0 l/m 2,1 km/h (1 Bft) NO 45 -0,5 C 15,2 C 3,3 km/h (1 Bft)
02.04.2020 17:38 15,2 C 25,1 C 5,4 C 0,0 C 34 % 1011,6 hPa 0,0 l/m 2,3 km/h (1 Bft) NO 45 -0,5 C 15,2 C 0,0 km/h (0 Bft)
02.04.2020 17:36 15,3 C 25,3 C 5,4 C 0,0 C 34 % 1011,6 hPa 0,0 l/m 2,9 km/h (1 Bft) O-NO 67 -0,5 C 15,3 C 2,9 km/h (1 Bft)
02.04.2020 17:34 15,3 C 25,3 C 5,4 C 0,0 C 34 % 1011,6 hPa 0,0 l/m 3,1 km/h (1 Bft) O-NO 67 -0,5 C 15,3 C 5,6 km/h (1 Bft)
02.04.2020 17:32 15,3 C 25,5 C 5,4 C 0,0 C 34 % 1011,6 hPa 0,0 l/m 3,1 km/h (1 Bft) NO 45 -0,5 C 15,3 C 5,6 km/h (1 Bft)
02.04.2020 17:30 15,2 C 25,4 C 5,4 C 0,0 C 34 % 1012,0 hPa 0,0 l/m 2,6 km/h (1 Bft) O 90 -0,5 C 15,2 C 2,3 km/h (1 Bft)
02.04.2020 17:28 15,2 C 25,5 C 5,4 C 0,0 C 34 % 1012,0 hPa 0,0 l/m 2,7 km/h (1 Bft) N 360 -0,5 C 15,2 C 4,6 km/h (1 Bft)
02.04.2020 17:26 15,2 C 25,6 C 5,4 C 0,0 C 34 % 1012,0 hPa 0,0 l/m 2,4 km/h (1 Bft) O-NO 67 -0,5 C 15,2 C 3,7 km/h (1 Bft)
02.04.2020 17:24 15,2 C 25,4 C 5,4 C 0,0 C 34 % 1012,0 hPa 0,0 l/m 1,8 km/h (1 Bft) O-NO 67 -0,5 C 15,2 C 5,0 km/h (1 Bft)
02.04.2020 17:22 15,1 C 25,1 C 5,4 C 0,0 C 34 % 1012,0 hPa 0,0 l/m 1,4 km/h (1 Bft) NO 45 -0,6 C 15,1 C 3,7 km/h (1 Bft)
02.04.2020 17:20 15,1 C 24,9 C 5,4 C 0,0 C 34 % 1012,0 hPa 0,0 l/m 1,6 km/h (1 Bft) NO 45 -0,6 C 15,1 C 2,9 km/h (1 Bft)
02.04.2020 17:18 15,1 C 24,9 C 5,4 C 0,0 C 34 % 1012,0 hPa 0,0 l/m 1,1 km/h (1 Bft) O 90 -0,6 C 15,1 C 2,5 km/h (1 Bft)
02.04.2020 17:16 15,1 C 24,4 C 5,5 C 0,0 C 34 % 1012,0 hPa 0,0 l/m 1,3 km/h (1 Bft) O-SO 112 -0,6 C 15,1 C 3,7 km/h (1 Bft)
02.04.2020 17:14 15,1 C 24,0 C 5,5 C 0,0 C 34 % 1012,0 hPa 0,0 l/m 1,6 km/h (1 Bft) NO 45 -0,6 C 15,1 C 1,9 km/h (1 Bft)
02.04.2020 17:12 15,1 C 24,4 C 5,5 C 0,0 C 34 % 1012,0 hPa 0,0 l/m 1,9 km/h (1 Bft) NO 45 -0,6 C 15,1 C 2,5 km/h (1 Bft)
02.04.2020 17:10 15,2 C 24,1 C 5,5 C 0,0 C 34 % 1012,3 hPa 0,0 l/m 2,4 km/h (1 Bft) O-NO 67 -0,5 C 15,2 C 3,5 km/h (1 Bft)
02.04.2020 17:08 15,3 C 24,2 C 5,5 C 0,0 C 34 % 1012,3 hPa 0,0 l/m 3,2 km/h (1 Bft) N-NW 337 -0,5 C 15,3 C 0,0 km/h (0 Bft)
02.04.2020 17:06 15,4 C 24,5 C 5,5 C 0,0 C 34 % 1012,3 hPa 0,0 l/m 3,4 km/h (1 Bft) O-SO 112 -0,4 C 15,4 C 0,0 km/h (0 Bft)
02.04.2020 17:04 15,4 C 24,8 C 5,4 C 0,0 C 34 % 1012,3 hPa 0,0 l/m 3,4 km/h (1 Bft) NO 45 -0,4 C 15,4 C 5,0 km/h (1 Bft)
02.04.2020 17:02 15,4 C 25,0 C 5,4 C 0,0 C 34 % 1012,3 hPa 0,0 l/m 3,2 km/h (1 Bft) O-NO 67 -0,4 C 15,4 C 5,0 km/h (1 Bft)
02.04.2020 17:00 15,3 C 25,4 C 5,4 C 0,0 C 34 % 1012,3 hPa 0,0 l/m 3,2 km/h (1 Bft) N-NO 22 -0,5 C 15,3 C 10,8 km/h (2 Bft)
02.04.2020 16:58 15,2 C 25,1 C 5,4 C 0,0 C 34 % 1012,3 hPa 0,0 l/m 2,3 km/h (1 Bft) N-NO 22 -0,5 C 15,2 C 7,9 km/h (2 Bft)
02.04.2020 16:56 15,2 C 25,4 C 5,4 C 0,0 C 34 % 1012,3 hPa 0,0 l/m 1,6 km/h (1 Bft) N 360 -0,5 C 15,2 C 2,5 km/h (1 Bft)
02.04.2020 16:54 15,2 C 25,7 C 5,4 C 0,0 C 34 % 1012,3 hPa 0,0 l/m 1,4 km/h (1 Bft) N-NO 22 -0,5 C 15,2 C 4,6 km/h (1 Bft)
02.04.2020 16:52 15,2 C 25,6 C 5,4 C 0,0 C 34 % 1012,3 hPa 0,0 l/m 1,4 km/h (1 Bft) O-NO 67 -0,5 C 15,2 C 4,2 km/h (1 Bft)
02.04.2020 16:50 15,1 C 26,2 C 5,4 C 0,0 C 34 % 1012,2 hPa 0,0 l/m 1,4 km/h (1 Bft) N 360 -0,6 C 15,1 C 6,0 km/h (2 Bft)
02.04.2020 16:48 15,1 C 25,9 C 5,4 C 0,0 C 34 % 1012,2 hPa 0,0 l/m 1,4 km/h (1 Bft) O-SO 112 -0,6 C 15,1 C 0,0 km/h (0 Bft)
02.04.2020 16:46 15,1 C 24,9 C 5,4 C 0,0 C 34 % 1012,2 hPa 0,0 l/m 2,6 km/h (1 Bft) SW 225 -0,6 C 15,1 C 0,0 km/h (0 Bft)
02.04.2020 16:44 15,2 C 26,0 C 5,4 C 0,0 C 34 % 1012,2 hPa 0,0 l/m 2,9 km/h (1 Bft) N-NW 337 -0,5 C 15,2 C 0,0 km/h (0 Bft)
02.04.2020 16:42 15,2 C 26,0 C 5,4 C 0,0 C 34 % 1012,2 hPa 0,0 l/m 3,2 km/h (1 Bft) N-NO 22 -0,5 C 15,2 C 4,6 km/h (1 Bft)
02.04.2020 16:40 15,1 C 25,9 C 5,4 C 0,0 C 34 % 1012,2 hPa 0,0 l/m 3,7 km/h (1 Bft) NO 45 -0,6 C 15,1 C 3,9 km/h (1 Bft)
02.04.2020 16:38 15,0 C 25,3 C 5,4 C 0,0 C 34 % 1012,2 hPa 0,0 l/m 3,7 km/h (1 Bft) SO 135 -0,7 C 15,0 C 3,7 km/h (1 Bft)
02.04.2020 16:36 14,9 C 25,4 C 5,4 C 0,0 C 34 % 1012,2 hPa 0,0 l/m 3,7 km/h (1 Bft) N 360 -0,8 C 14,9 C 8,5 km/h (2 Bft)
02.04.2020 16:34 14,8 C 24,6 C 5,4 C 0,0 C 34 % 1012,2 hPa 0,0 l/m 3,4 km/h (1 Bft) O 90 -0,9 C 14,8 C 4,4 km/h (1 Bft)
02.04.2020 16:32 14,7 C 24,3 C 5,4 C 0,0 C 34 % 1012,2 hPa 0,0 l/m 3,9 km/h (1 Bft) NO 45 -1,0 C 14,7 C 5,8 km/h (2 Bft)
02.04.2020 16:30 14,6 C 23,7 C 5,4 C 0,0 C 34 % 1012,4 hPa 0,0 l/m 3,5 km/h (1 Bft) O-NO 67 -1,1 C 14,6 C 7,3 km/h (2 Bft)
02.04.2020 16:28 14,7 C 24,1 C 5,4 C 0,0 C 34 % 1012,4 hPa 0,0 l/m 3,2 km/h (1 Bft) N-NO 22 -1,0 C 14,7 C 5,8 km/h (2 Bft)
02.04.2020 16:26 14,9 C 24,5 C 5,4 C 0,0 C 34 % 1012,4 hPa 0,0 l/m 3,1 km/h (1 Bft) W-SW 247 -0,8 C 14,9 C 2,7 km/h (1 Bft)
02.04.2020 16:24 14,9 C 25,0 C 5,4 C 0,0 C 34 % 1012,4 hPa 0,0 l/m 2,9 km/h (1 Bft) NO 45 -0,8 C 14,9 C 11,4 km/h (2 Bft)
02.04.2020 16:22 15,0 C 25,8 C 5,4 C 0,0 C 34 % 1012,4 hPa 0,0 l/m 2,4 km/h (1 Bft) NO 45 -0,7 C 15,0 C 5,6 km/h (1 Bft)
02.04.2020 16:20 15,0 C 25,7 C 5,4 C 0,0 C 34 % 1012,4 hPa 0,0 l/m 3,2 km/h (1 Bft) NO 45 -0,7 C 15,0 C 0,0 km/h (0 Bft)
02.04.2020 16:18 15,0 C 25,7 C 5,4 C 0,0 C 34 % 1012,4 hPa 0,0 l/m 4,0 km/h (1 Bft) O-SO 112 -0,7 C 15,0 C 3,3 km/h (1 Bft)
02.04.2020 16:16 14,9 C 25,6 C 5,4 C 0,0 C 34 % 1012,4 hPa 0,0 l/m 4,8 km/h (1 Bft) NO 45 -0,8 C 14,9 C 7,0 km/h (2 Bft)
02.04.2020 16:14 14,9 C 25,6 C 5,4 C 0,0 C 34 % 1012,4 hPa 0,0 l/m 6,9 km/h (2 Bft) SO 135 -0,8 C 14,6 C 6,6 km/h (2 Bft)
02.04.2020 16:12 15,1 C 25,6 C 5,4 C 0,0 C 34 % 1012,4 hPa 0,0 l/m 8,2 km/h (2 Bft) N 360 -0,6 C 14,1 C 2,3 km/h (1 Bft)
02.04.2020 16:10 15,1 C 26,1 C 5,3 C 0,0 C 34 % 1012,9 hPa 0,0 l/m 9,8 km/h (2 Bft) SO 135 -0,6 C 13,3 C 8,3 km/h (2 Bft)
02.04.2020 16:08 15,1 C 26,3 C 5,3 C 0,0 C 34 % 1012,9 hPa 0,0 l/m 10,6 km/h (2 Bft) O-SO 112 -0,6 C 13,0 C 8,3 km/h (2 Bft)
02.04.2020 16:06 15,1 C 26,4 C 5,3 C 0,0 C 34 % 1012,9 hPa 0,0 l/m 11,3 km/h (2 Bft) NO 45 -0,6 C 12,7 C 10,0 km/h (2 Bft)
02.04.2020 16:04 15,1 C 26,1 C 5,3 C 0,0 C 34 % 1012,9 hPa 0,0 l/m 9,7 km/h (2 Bft) O-NO 67 -0,6 C 13,4 C 25,1 km/h (4 Bft)
02.04.2020 16:02 15,1 C 26,2 C 5,3 C 0,0 C 34 % 1012,9 hPa 0,0 l/m 8,9 km/h (2 Bft) SO 135 -0,6 C 13,7 C 21,4 km/h (4 Bft)
02.04.2020 16:00 15,1 C 26,0 C 5,3 C 0,0 C 34 % 1012,9 hPa 0,0 l/m 9,0 km/h (2 Bft) O 90 -0,6 C 13,7 C 23,2 km/h (4 Bft)
02.04.2020 15:58 15,1 C 26,1 C 5,3 C 0,0 C 34 % 1012,9 hPa 0,0 l/m 8,7 km/h (2 Bft) O-SO 112 -0,6 C 13,8 C 9,8 km/h (2 Bft)
02.04.2020 15:56 15,0 C 26,1 C 5,3 C 0,0 C 34 % 1012,9 hPa 0,0 l/m 9,2 km/h (2 Bft) SO 135 -0,7 C 13,5 C 15,6 km/h (3 Bft)
02.04.2020 15:54 14,9 C 25,6 C 5,3 C 0,0 C 34 % 1012,9 hPa 0,0 l/m 9,8 km/h (2 Bft) SO 135 -0,8 C 13,1 C 9,1 km/h (2 Bft)
02.04.2020 15:52 14,7 C 25,5 C 5,3 C 0,0 C 34 % 1012,9 hPa 0,0 l/m 10,3 km/h (2 Bft) NO 45 -1,0 C 12,6 C 15,1 km/h (3 Bft)
02.04.2020 15:50 14,6 C 25,5 C 5,3 C 0,0 C 34 % 1013,0 hPa 0,0 l/m 9,5 km/h (2 Bft) NO 45 -1,1 C 12,9 C 20,9 km/h (4 Bft)
02.04.2020 15:48 14,7 C 25,4 C 5,3 C 0,0 C 34 % 1013,0 hPa 0,0 l/m 9,8 km/h (2 Bft) NO 45 -1,0 C 12,9 C 17,2 km/h (3 Bft)
02.04.2020 15:46 14,7 C 26,0 C 5,3 C 0,0 C 34 % 1013,0 hPa 0,0 l/m 9,0 km/h (2 Bft) N 360 -1,0 C 13,3 C 13,1 km/h (3 Bft)
02.04.2020 15:44 14,6 C 25,9 C 5,3 C 0,0 C 34 % 1013,0 hPa 0,0 l/m 9,2 km/h (2 Bft) O-SO 112 -1,1 C 13,1 C 18,7 km/h (3 Bft)
02.04.2020 15:42 14,6 C 25,7 C 5,3 C 0,0 C 34 % 1013,0 hPa 0,0 l/m 9,5 km/h (2 Bft) O-SO 112 -1,1 C 12,9 C 4,4 km/h (1 Bft)
02.04.2020 15:40 14,5 C 25,6 C 5,3 C 0,0 C 34 % 1013,0 hPa 0,0 l/m 11,6 km/h (2 Bft) O-NO 67 -1,2 C 11,9 C 18,7 km/h (3 Bft)
02.04.2020 15:38 14,2 C 26,6 C 5,3 C 0,0 C 34 % 1013,0 hPa 0,0 l/m 11,1 km/h (2 Bft) O-NO 67 -1,4 C 11,7 C 12,2 km/h (2 Bft)
02.04.2020 15:36 14,1 C 26,6 C 5,2 C 0,0 C 34 % 1013,0 hPa 0,0 l/m 12,9 km/h (3 Bft) O-SO 112 -1,5 C 10,9 C 16,8 km/h (3 Bft)
02.04.2020 15:34 13,6 C 26,8 C 5,2 C 0,0 C 34 % 1013,0 hPa 0,0 l/m 12,9 km/h (3 Bft) O-NO 67 -2,0 C 10,3 C 10,0 km/h (2 Bft)
02.04.2020 15:32 13,2 C 26,4 C 5,2 C 0,0 C 34 % 1013,0 hPa 0,0 l/m 11,6 km/h (2 Bft) NO 45 -2,3 C 10,4 C 17,0 km/h (3 Bft)
02.04.2020 15:30 13,2 C 26,2 C 5,2 C 0,0 C 34 % 1013,1 hPa 0,0 l/m 10,6 km/h (2 Bft) O 90 -2,3 C 10,8 C 24,1 km/h (4 Bft)
02.04.2020 15:28 13,1 C 25,8 C 5,2 C 0,0 C 34 % 1013,1 hPa 0,0 l/m 10,6 km/h (2 Bft) O-SO 112 -2,4 C 10,7 C 18,3 km/h (3 Bft)
02.04.2020 15:26 13,1 C 25,7 C 5,2 C 0,0 C 34 % 1013,1 hPa 0,0 l/m 11,3 km/h (2 Bft) NO 45 -2,4 C 10,4 C 23,2 km/h (4 Bft)
02.04.2020 15:24 13,2 C 26,2 C 5,2 C 0,0 C 34 % 1013,1 hPa 0,0 l/m 11,3 km/h (2 Bft) O-SO 112 -2,3 C 10,5 C 15,8 km/h (3 Bft)
02.04.2020 15:22 13,6 C 26,7 C 5,2 C 0,0 C 34 % 1013,1 hPa 0,0 l/m 11,6 km/h (2 Bft) NO 45 -2,0 C 10,8 C 0,0 km/h (0 Bft)
02.04.2020 15:20 13,9 C 26,5 C 5,2 C 0,0 C 34 % 1013,1 hPa 0,0 l/m 12,6 km/h (3 Bft) N 360 -1,7 C 10,8 C 10,4 km/h (2 Bft)
02.04.2020 15:18 14,3 C 26,5 C 5,2 C 0,0 C 34 % 1013,1 hPa 0,0 l/m 12,7 km/h (3 Bft) NO 45 -1,3 C 11,2 C 18,5 km/h (3 Bft)
02.04.2020 15:16 14,3 C 26,6 C 5,2 C 0,0 C 34 % 1013,1 hPa 0,0 l/m 12,7 km/h (3 Bft) O-NO 67 -1,3 C 11,2 C 23,0 km/h (4 Bft)
02.04.2020 15:14 14,1 C 26,8 C 5,2 C 0,0 C 34 % 1013,1 hPa 0,0 l/m 11,4 km/h (2 Bft) O-NO 67 -1,5 C 11,5 C 26,1 km/h (4 Bft)
02.04.2020 15:12 13,9 C 27,0 C 5,2 C 0,0 C 34 % 1013,1 hPa 0,0 l/m 11,1 km/h (2 Bft) O-NO 67 -1,7 C 11,4 C 20,5 km/h (4 Bft)
02.04.2020 15:10 13,5 C 26,6 C 5,1 C 0,0 C 34 % 1013,4 hPa 0,0 l/m 10,5 km/h (2 Bft) O 90 -2,0 C 11,2 C 9,7 km/h (2 Bft)
02.04.2020 15:08 13,1 C 26,0 C 5,1 C 0,0 C 34 % 1013,4 hPa 0,0 l/m 10,9 km/h (2 Bft) NO 45 -2,4 C 10,6 C 21,8 km/h (4 Bft)
02.04.2020 15:06 12,9 C 25,8 C 5,1 C 0,0 C 35 % 1013,4 hPa 0,0 l/m 10,8 km/h (2 Bft) O-NO 67 -2,2 C 10,4 C 26,7 km/h (4 Bft)
02.04.2020 15:04 13,0 C 25,9 C 5,1 C 0,0 C 34 % 1013,4 hPa 0,0 l/m 11,4 km/h (2 Bft) N 360 -2,5 C 10,2 C 11,6 km/h (2 Bft)
02.04.2020 15:02 13,0 C 26,3 C 5,1 C 0,0 C 34 % 1013,4 hPa 0,0 l/m 10,1 km/h (2 Bft) O-NO 67 -2,5 C 10,9 C 13,5 km/h (3 Bft)
02.04.2020 15:00 12,8 C 26,0 C 5,1 C 0,0 C 36 % 1013,4 hPa 0,0 l/m 9,2 km/h (2 Bft) O 90 -1,9 C 11,1 C 9,8 km/h (2 Bft)
02.04.2020 14:58 12,9 C 26,9 C 5,1 C 0,0 C 35 % 1013,4 hPa 0,0 l/m 9,0 km/h (2 Bft) N-NO 22 -2,2 C 11,3 C 25,9 km/h (4 Bft)
02.04.2020 14:56 12,9 C 26,7 C 5,1 C 0,0 C 35 % 1013,4 hPa 0,0 l/m 9,5 km/h (2 Bft) O-SO 112 -2,2 C 11,1 C 13,3 km/h (3 Bft)
02.04.2020 14:54 12,8 C 26,3 C 5,1 C 0,0 C 35 % 1013,4 hPa 0,0 l/m 9,8 km/h (2 Bft) O-NO 67 -2,3 C 10,8 C 19,7 km/h (3 Bft)
02.04.2020 14:52 12,8 C 26,1 C 5,1 C 0,0 C 35 % 1013,4 hPa 0,0 l/m 9,0 km/h (2 Bft) O-NO 67 -2,3 C 11,2 C 12,9 km/h (3 Bft)
02.04.2020 14:50 12,8 C 26,1 C 5,1 C 0,0 C 35 % 1013,4 hPa 0,0 l/m 9,5 km/h (2 Bft) O 90 -2,3 C 10,9 C 18,7 km/h (3 Bft)
02.04.2020 14:48 12,7 C 25,9 C 5,1 C 0,0 C 36 % 1013,4 hPa 0,0 l/m 9,0 km/h (2 Bft) O-NO 67 -2,0 C 11,1 C 22,8 km/h (4 Bft)
02.04.2020 14:46 12,7 C 25,8 C 5,0 C 0,0 C 35 % 1013,4 hPa 0,0 l/m 7,9 km/h (2 Bft) O-NO 67 -2,4 C 11,7 C 18,3 km/h (3 Bft)
02.04.2020 14:44 12,6 C 26,3 C 5,0 C 0,0 C 36 % 1013,4 hPa 0,0 l/m 6,9 km/h (2 Bft) SO 135 -2,1 C 12,3 C 19,1 km/h (3 Bft)
02.04.2020 14:42 12,6 C 25,9 C 5,0 C 0,0 C 35 % 1013,4 hPa 0,0 l/m 8,2 km/h (2 Bft) O-SO 112 -2,4 C 11,5 C 5,2 km/h (1 Bft)
02.04.2020 14:40 12,5 C 25,4 C 5,0 C 0,0 C 35 % 1013,4 hPa 0,0 l/m 8,7 km/h (2 Bft) O-SO 112 -2,5 C 11,1 C 16,6 km/h (3 Bft)
02.04.2020 14:38 12,6 C 26,3 C 5,0 C 0,0 C 36 % 1013,4 hPa 0,0 l/m 9,7 km/h (2 Bft) NO 45 -2,1 C 10,6 C 17,2 km/h (3 Bft)
02.04.2020 14:36 12,6 C 25,6 C 5,0 C 0,0 C 36 % 1013,4 hPa 0,0 l/m 9,7 km/h (2 Bft) N 360 -2,1 C 10,6 C 11,0 km/h (2 Bft)
02.04.2020 14:34 12,5 C 25,1 C 5,0 C 0,0 C 36 % 1013,4 hPa 0,0 l/m 11,7 km/h (2 Bft) O-NO 67 -2,2 C 9,5 C 18,9 km/h (3 Bft)
02.04.2020 14:32 12,5 C 24,6 C 5,0 C 0,0 C 36 % 1013,4 hPa 0,0 l/m 11,4 km/h (2 Bft) O-NO 67 -2,2 C 9,7 C 25,7 km/h (4 Bft)
02.04.2020 14:30 12,6 C 24,7 C 5,0 C 0,0 C 36 % 1013,9 hPa 0,0 l/m 10,5 km/h (2 Bft) O-SO 112 -2,1 C 10,2 C 11,4 km/h (2 Bft)
02.04.2020 14:28 12,8 C 25,0 C 5,0 C 0,0 C 36 % 1013,9 hPa 0,0 l/m 9,7 km/h (2 Bft) O-NO 67 -1,9 C 10,8 C 10,4 km/h (2 Bft)
02.04.2020 14:26 12,8 C 24,9 C 4,9 C 0,0 C 36 % 1013,9 hPa 0,0 l/m 9,8 km/h (2 Bft) NO 45 -1,9 C 10,8 C 12,9 km/h (3 Bft)
02.04.2020 14:24 12,8 C 25,1 C 4,9 C 0,0 C 36 % 1013,9 hPa 0,0 l/m 9,7 km/h (2 Bft) O-NO 67 -1,9 C 10,8 C 23,6 km/h (4 Bft)
02.04.2020 14:22 12,8 C 24,7 C 4,9 C 0,0 C 36 % 1013,9 hPa 0,0 l/m 9,3 km/h (2 Bft) NO 45 -1,9 C 11,1 C 16,2 km/h (3 Bft)
02.04.2020 14:20 12,8 C 24,0 C 4,9 C 0,0 C 36 % 1013,9 hPa 0,0 l/m 9,0 km/h (2 Bft) O-NO 67 -1,9 C 11,2 C 8,7 km/h (2 Bft)
02.04.2020 14:18 13,2 C 24,3 C 4,9 C 0,0 C 34 % 1013,9 hPa 0,0 l/m 10,6 km/h (2 Bft) O-NO 67 -2,3 C 10,8 C 10,6 km/h (2 Bft)
02.04.2020 14:16 13,6 C 24,6 C 4,9 C 0,0 C 34 % 1013,9 hPa 0,0 l/m 10,8 km/h (2 Bft) NO 45 -2,0 C 11,2 C 15,1 km/h (3 Bft)
02.04.2020 14:14 13,7 C 24,6 C 4,9 C 0,0 C 36 % 1013,9 hPa 0,0 l/m 10,6 km/h (2 Bft) N 360 -1,1 C 11,4 C 14,9 km/h (3 Bft)
02.04.2020 14:12 13,6 C 25,6 C 4,9 C 0,0 C 37 % 1013,9 hPa 0,0 l/m 9,3 km/h (2 Bft) O-NO 67 -0,8 C 11,9 C 22,0 km/h (4 Bft)
02.04.2020 14:10 13,5 C 25,8 C 4,9 C 0,0 C 37 % 1014,2 hPa 0,0 l/m 9,5 km/h (2 Bft) N-NO 22 -0,9 C 11,7 C 11,0 km/h (2 Bft)
02.04.2020 14:08 13,4 C 25,3 C 4,9 C 0,0 C 38 % 1014,2 hPa 0,0 l/m 9,5 km/h (2 Bft) O-NO 67 -0,6 C 11,6 C 20,7 km/h (4 Bft)
02.04.2020 14:06 13,2 C 25,1 C 4,9 C 0,0 C 38 % 1014,2 hPa 0,0 l/m 8,2 km/h (2 Bft) N 360 -0,8 C 12,1 C 21,6 km/h (4 Bft)
02.04.2020 14:04 13,2 C 24,5 C 4,9 C 0,0 C 38 % 1014,2 hPa 0,0 l/m 9,0 km/h (2 Bft) N 360 -0,8 C 11,6 C 24,1 km/h (4 Bft)
02.04.2020 14:02 13,2 C 23,5 C 4,9 C 0,0 C 38 % 1014,2 hPa 0,0 l/m 10,6 km/h (2 Bft) O 90 -0,8 C 10,8 C 5,4 km/h (1 Bft)
02.04.2020 14:00 13,1 C 23,5 C 4,9 C 0,0 C 38 % 1014,2 hPa 0,0 l/m 10,9 km/h (2 Bft) O 90 -0,9 C 10,6 C 29,9 km/h (5 Bft)
02.04.2020 13:58 13,1 C 23,1 C 4,8 C 0,0 C 37 % 1014,2 hPa 0,0 l/m 10,5 km/h (2 Bft) NO 45 -1,2 C 10,8 C 4,8 km/h (1 Bft)
02.04.2020 13:56 13,0 C 22,6 C 4,8 C 0,0 C 38 % 1014,2 hPa 0,0 l/m 10,8 km/h (2 Bft) O-SO 112 -1,0 C 10,5 C 16,0 km/h (3 Bft)
02.04.2020 13:54 13,0 C 22,1 C 4,8 C 0,0 C 38 % 1014,2 hPa 0,0 l/m 11,3 km/h (2 Bft) O-SO 112 -1,0 C 10,3 C 23,9 km/h (4 Bft)
02.04.2020 13:52 12,9 C 21,5 C 4,8 C 0,0 C 40 % 1014,2 hPa 0,0 l/m 10,3 km/h (2 Bft) O-SO 112 -0,4 C 10,6 C 18,2 km/h (3 Bft)
02.04.2020 13:50 12,8 C 20,5 C 4,8 C 0,0 C 41 % 1014,4 hPa 0,0 l/m 9,8 km/h (2 Bft) NO 45 -0,1 C 10,8 C 18,9 km/h (3 Bft)
02.04.2020 13:48 12,7 C 19,8 C 4,8 C 0,0 C 41 % 1014,4 hPa 0,0 l/m 9,7 km/h (2 Bft) O-NO 67 -0,2 C 10,7 C 8,5 km/h (2 Bft)
02.04.2020 13:46 12,7 C 16,0 C 4,8 C 0,0 C 41 % 1014,4 hPa 0,0 l/m 10,1 km/h (2 Bft) N-NO 22 -0,2 C 10,5 C 12,0 km/h (2 Bft)
02.04.2020 13:44 12,6 C 15,1 C 4,8 C 0,0 C 41 % 1014,4 hPa 0,0 l/m 10,3 km/h (2 Bft) O-NO 67 -0,3 C 10,3 C 21,0 km/h (4 Bft)
02.04.2020 13:42 12,6 C 13,5 C 4,8 C 0,0 C 41 % 1014,4 hPa 0,0 l/m 9,7 km/h (2 Bft) NO 45 -0,3 C 10,6 C 30,7 km/h (5 Bft)
02.04.2020 13:40 12,4 C 12,8 C 4,7 C 0,0 C 41 % 1014,4 hPa 0,0 l/m 11,1 km/h (2 Bft) O-NO 67 -0,5 C 9,7 C 11,8 km/h (2 Bft)
02.04.2020 13:38 12,4 C 12,7 C 4,7 C 0,0 C 41 % 1014,4 hPa 0,0 l/m 11,3 km/h (2 Bft) O 90 -0,5 C 9,6 C 24,1 km/h (4 Bft)
02.04.2020 13:36 12,3 C 12,8 C 4,7 C 0,0 C 41 % 1014,4 hPa 0,0 l/m 11,9 km/h (2 Bft) O-NO 67 -0,6 C 9,2 C 9,5 km/h (2 Bft)
02.04.2020 13:34 12,2 C 12,8 C 4,7 C 0,0 C 41 % 1014,4 hPa 0,0 l/m 11,7 km/h (2 Bft) NO 45 -0,7 C 9,2 C 21,0 km/h (4 Bft)
02.04.2020 13:32 12,1 C 12,7 C 4,7 C 0,0 C 41 % 1014,4 hPa 0,0 l/m 11,6 km/h (2 Bft) O-NO 67 -0,7 C 9,1 C 21,2 km/h (4 Bft)
02.04.2020 13:30 12,1 C 12,7 C 4,7 C 0,0 C 41 % 1014,6 hPa 0,0 l/m 10,0 km/h (2 Bft) O-NO 67 -0,7 C 9,9 C 18,9 km/h (3 Bft)
02.04.2020 13:28 12,0 C 12,6 C 4,7 C 0,0 C 40 % 1014,6 hPa 0,0 l/m 9,7 km/h (2 Bft) SO 135 -1,2 C 10,0 C 11,4 km/h (2 Bft)
02.04.2020 13:26 12,0 C 12,6 C 4,6 C 0,0 C 41 % 1014,6 hPa 0,0 l/m 9,0 km/h (2 Bft) NO 45 -0,8 C 10,4 C 23,6 km/h (4 Bft)
02.04.2020 13:24 11,9 C 12,6 C 4,6 C 0,0 C 41 % 1014,6 hPa 0,0 l/m 9,2 km/h (2 Bft) O-SO 112 -0,9 C 10,1 C 11,0 km/h (2 Bft)
02.04.2020 13:22 11,8 C 12,7 C 4,6 C 0,0 C 42 % 1014,6 hPa 0,0 l/m 9,2 km/h (2 Bft) O-NO 67 -0,7 C 10,0 C 11,4 km/h (2 Bft)
02.04.2020 13:20 11,8 C 12,7 C 4,6 C 0,0 C 42 % 1014,6 hPa 0,0 l/m 10,0 km/h (2 Bft) N 360 -0,7 C 9,6 C 0,0 km/h (0 Bft)
02.04.2020 13:18 11,8 C 12,8 C 4,6 C 0,0 C 42 % 1014,6 hPa 0,0 l/m 9,0 km/h (2 Bft) N-NO 22 -0,7 C 10,1 C 21,4 km/h (4 Bft)
02.04.2020 13:16 11,8 C 13,0 C 4,6 C 0,0 C 42 % 1014,6 hPa 0,0 l/m 8,4 km/h (2 Bft) O-SO 112 -0,7 C 10,5 C 9,8 km/h (2 Bft)
02.04.2020 13:14 11,7 C 13,8 C 4,6 C 0,0 C 42 % 1014,6 hPa 0,0 l/m 8,7 km/h (2 Bft) O-NO 67 -0,8 C 10,2 C 22,4 km/h (4 Bft)
02.04.2020 13:12 11,7 C 13,9 C 4,6 C 0,0 C 42 % 1014,6 hPa 0,0 l/m 8,5 km/h (2 Bft) N-NO 22 -0,8 C 10,3 C 15,1 km/h (3 Bft)
02.04.2020 13:10 11,7 C 14,6 C 4,5 C 0,0 C 42 % 1014,9 hPa 0,0 l/m 7,6 km/h (2 Bft) O-NO 67 -0,8 C 10,9 C 25,9 km/h (4 Bft)
02.04.2020 13:08 11,7 C 14,7 C 4,5 C 0,0 C 42 % 1014,9 hPa 0,0 l/m 8,0 km/h (2 Bft) SW 225 -0,8 C 10,6 C 3,3 km/h (1 Bft)
02.04.2020 13:06 11,7 C 15,2 C 4,5 C 0,0 C 42 % 1014,9 hPa 0,0 l/m 8,2 km/h (2 Bft) NO 45 -0,8 C 10,5 C 13,5 km/h (3 Bft)
02.04.2020 13:04 11,8 C 15,2 C 4,5 C 0,0 C 41 % 1014,9 hPa 0,0 l/m 9,0 km/h (2 Bft) SO 135 -1,0 C 10,1 C 15,1 km/h (3 Bft)
02.04.2020 13:02 11,7 C 15,1 C 4,5 C 0,0 C 42 % 1014,9 hPa 0,0 l/m 8,9 km/h (2 Bft) O 90 -0,8 C 10,1 C 13,3 km/h (3 Bft)
02.04.2020 13:00 11,7 C 14,7 C 4,5 C 0,0 C 42 % 1014,9 hPa 0,0 l/m 8,9 km/h (2 Bft) O-SO 112 -0,8 C 10,1 C 12,6 km/h (3 Bft)
02.04.2020 12:58 11,7 C 14,6 C 4,4 C 0,0 C 43 % 1014,9 hPa 0,0 l/m 9,8 km/h (2 Bft) O-NO 67 -0,5 C 9,6 C 14,5 km/h (3 Bft)
02.04.2020 12:56 11,7 C 14,1 C 4,4 C 0,0 C 42 % 1014,9 hPa 0,0 l/m 10,3 km/h (2 Bft) O-SO 112 -0,8 C 9,3 C 10,4 km/h (2 Bft)
02.04.2020 12:54 11,7 C 14,5 C 4,4 C 0,0 C 43 % 1014,9 hPa 0,0 l/m 10,5 km/h (2 Bft) NO 45 -0,5 C 9,2 C 21,6 km/h (4 Bft)
02.04.2020 12:52 11,7 C 14,6 C 4,4 C 0,0 C 43 % 1014,9 hPa 0,0 l/m 9,8 km/h (2 Bft) O-SO 112 -0,5 C 9,6 C 9,8 km/h (2 Bft)
02.04.2020 12:50 11,6 C 15,4 C 4,4 C 0,0 C 43 % 1015,4 hPa 0,0 l/m 9,7 km/h (2 Bft) O-NO 67 -0,5 C 9,5 C 12,6 km/h (3 Bft)
02.04.2020 12:48 11,6 C 16,2 C 4,4 C 0,0 C 43 % 1015,4 hPa 0,0 l/m 9,3 km/h (2 Bft) O-NO 67 -0,5 C 9,8 C 24,3 km/h (4 Bft)
02.04.2020 12:46 11,6 C 16,9 C 4,3 C 0,0 C 43 % 1015,4 hPa 0,0 l/m 9,0 km/h (2 Bft) NO 45 -0,5 C 9,9 C 9,7 km/h (2 Bft)
02.04.2020 12:44 11,6 C 16,9 C 4,3 C 0,0 C 43 % 1015,4 hPa 0,0 l/m 9,3 km/h (2 Bft) N-NW 337 -0,5 C 9,8 C 12,9 km/h (3 Bft)
02.04.2020 12:42 11,5 C 17,1 C 4,4 C 0,0 C 43 % 1015,4 hPa 0,0 l/m 10,9 km/h (2 Bft) O-NO 67 -0,6 C 8,8 C 4,1 km/h (1 Bft)
02.04.2020 12:40 11,3 C 17,1 C 4,4 C 0,0 C 43 % 1015,4 hPa 0,0 l/m 12,1 km/h (2 Bft) O-NO 67 -0,8 C 8,0 C 12,4 km/h (3 Bft)
02.04.2020 12:38 11,3 C 15,8 C 4,4 C 0,0 C 43 % 1015,4 hPa 0,0 l/m 13,7 km/h (3 Bft) NO 45 -0,8 C 7,2 C 17,0 km/h (3 Bft)
02.04.2020 12:36 11,1 C 15,2 C 4,4 C 0,0 C 43 % 1015,4 hPa 0,0 l/m 13,8 km/h (3 Bft) NO 45 -1,0 C 7,0 C 14,9 km/h (3 Bft)
02.04.2020 12:34 11,1 C 15,9 C 4,4 C 0,0 C 43 % 1015,4 hPa 0,0 l/m 14,0 km/h (3 Bft) N 360 -1,0 C 6,9 C 20,5 km/h (4 Bft)
02.04.2020 12:32 11,1 C 17,4 C 4,2 C 0,0 C 43 % 1015,4 hPa 0,0 l/m 14,3 km/h (3 Bft) O-NO 67 -1,0 C 6,8 C 27,4 km/h (4 Bft)
02.04.2020 12:30 11,0 C 17,5 C 4,2 C 0,0 C 44 % 1015,6 hPa 0,0 l/m 13,0 km/h (3 Bft) NO 45 -0,8 C 7,2 C 23,8 km/h (4 Bft)
02.04.2020 12:28 11,0 C 18,6 C 4,2 C 0,0 C 44 % 1015,6 hPa 0,0 l/m 13,0 km/h (3 Bft) O-NO 67 -0,8 C 7,2 C 23,0 km/h (4 Bft)
02.04.2020 12:26 10,9 C 19,8 C 4,2 C 0,0 C 44 % 1015,6 hPa 0,0 l/m 12,4 km/h (3 Bft) N 360 -0,9 C 7,4 C 17,2 km/h (3 Bft)
02.04.2020 12:24 10,9 C 19,5 C 4,2 C 0,0 C 44 % 1015,6 hPa 0,0 l/m 11,4 km/h (2 Bft) O-NO 67 -0,9 C 7,8 C 18,7 km/h (3 Bft)
02.04.2020 12:22 10,9 C 20,4 C 4,2 C 0,0 C 44 % 1015,6 hPa 0,0 l/m 10,3 km/h (2 Bft) O 90 -0,9 C 8,4 C 23,2 km/h (4 Bft)
02.04.2020 12:20 10,9 C 20,3 C 4,2 C 0,0 C 44 % 1015,6 hPa 0,0 l/m 10,5 km/h (2 Bft) O-SO 112 -0,9 C 8,3 C 23,0 km/h (4 Bft)
02.04.2020 12:18 10,8 C 20,0 C 4,1 C 0,0 C 45 % 1015,6 hPa 0,0 l/m 10,3 km/h (2 Bft) NO 45 -0,6 C 8,3 C 15,3 km/h (3 Bft)
02.04.2020 12:16 10,6 C 19,3 C 4,2 C 0,0 C 45 % 1015,6 hPa 0,0 l/m 10,0 km/h (2 Bft) N-NW 337 -0,8 C 8,3 C 7,9 km/h (2 Bft)
02.04.2020 12:14 10,6 C 17,2 C 4,2 C 0,0 C 44 % 1015,6 hPa 0,0 l/m 9,8 km/h (2 Bft) NO 45 -1,1 C 8,4 C 16,4 km/h (3 Bft)
02.04.2020 12:12 10,4 C 15,8 C 4,0 C 0,0 C 45 % 1015,6 hPa 0,0 l/m 9,3 km/h (2 Bft) O-SO 112 -1,0 C 8,4 C 10,8 km/h (2 Bft)
02.04.2020 12:10 10,4 C 17,2 C 4,0 C 0,0 C 45 % 1015,6 hPa 0,0 l/m 9,3 km/h (2 Bft) O-SO 112 -1,0 C 8,4 C 10,8 km/h (2 Bft)
02.04.2020 12:08 10,4 C 17,2 C 4,0 C 0,0 C 45 % 1015,6 hPa 0,0 l/m 9,3 km/h (2 Bft) O-SO 112 -1,0 C 8,4 C 10,8 km/h (2 Bft)
02.04.2020 12:06 10,4 C 17,2 C 4,0 C 0,0 C 45 % 1015,6 hPa 0,0 l/m 9,3 km/h (2 Bft) O-SO 112 -1,0 C 8,4 C 10,8 km/h (2 Bft)
02.04.2020 12:04 10,4 C 17,2 C 4,0 C 0,0 C 45 % 1015,6 hPa 0,0 l/m 9,3 km/h (2 Bft) O-SO 112 -1,0 C 8,4 C 10,8 km/h (2 Bft)
02.04.2020 12:02 10,4 C 17,2 C 4,0 C 0,0 C 45 % 1015,6 hPa 0,0 l/m 9,3 km/h (2 Bft) O-SO 112 -1,0 C 8,4 C 10,8 km/h (2 Bft)
02.04.2020 12:00 10,4 C 18,5 C 4,0 C 0,0 C 45 % 1015,6 hPa 0,0 l/m 9,0 km/h (2 Bft) O-NO 67 -1,0 C 8,6 C 15,1 km/h (3 Bft)
02.04.2020 11:58 10,4 C 19,9 C 4,0 C 0,0 C 45 % 1015,6 hPa 0,0 l/m 9,0 km/h (2 Bft) O-SO 112 -1,0 C 8,6 C 20,1 km/h (4 Bft)
02.04.2020 11:56 10,3 C 20,6 C 4,0 C 0,0 C 46 % 1015,6 hPa 0,0 l/m 9,0 km/h (2 Bft) O-NO 67 -0,8 C 8,5 C 11,2 km/h (2 Bft)
02.04.2020 11:54 10,2 C 20,6 C 4,1 C 0,0 C 46 % 1015,6 hPa 0,0 l/m 10,3 km/h (2 Bft) O-NO 67 -0,9 C 7,6 C 11,6 km/h (2 Bft)
02.04.2020 11:52 10,1 C 21,2 C 4,1 C 0,0 C 46 % 1015,6 hPa 0,0 l/m 10,6 km/h (2 Bft) N 360 -1,0 C 7,4 C 25,9 km/h (4 Bft)
02.04.2020 11:50 10,2 C 20,3 C 4,1 C 0,0 C 46 % 1015,9 hPa 0,0 l/m 10,9 km/h (2 Bft) N 360 -0,9 C 7,3 C 16,4 km/h (3 Bft)
02.04.2020 11:48 10,2 C 19,9 C 3,9 C 0,0 C 46 % 1015,9 hPa 0,0 l/m 10,8 km/h (2 Bft) N 360 -0,9 C 7,4 C 13,7 km/h (3 Bft)
02.04.2020 11:46 10,1 C 20,2 C 3,9 C 0,0 C 46 % 1015,9 hPa 0,0 l/m 9,3 km/h (2 Bft) O-NO 67 -1,0 C 8,1 C 14,1 km/h (3 Bft)
02.04.2020 11:44 10,1 C 20,6 C 3,9 C 0,0 C 46 % 1015,9 hPa 0,0 l/m 8,0 km/h (2 Bft) O-NO 67 -1,0 C 9,0 C 25,9 km/h (4 Bft)
02.04.2020 11:42 9,9 C 20,7 C 3,9 C 0,0 C 47 % 1015,9 hPa 0,0 l/m 7,4 km/h (2 Bft) O-SO 112 -0,9 C 9,2 C 11,4 km/h (2 Bft)
02.04.2020 11:40 9,9 C 20,7 C 3,9 C 0,0 C 47 % 1015,9 hPa 0,0 l/m 7,2 km/h (2 Bft) O-NO 67 -0,9 C 9,3 C 18,5 km/h (3 Bft)
02.04.2020 11:38 9,9 C 20,1 C 4,0 C 0,0 C 46 % 1015,9 hPa 0,0 l/m 6,6 km/h (2 Bft) O-NO 67 -1,2 C 9,8 C 7,9 km/h (2 Bft)
02.04.2020 11:36 9,8 C 20,4 C 4,0 C 0,0 C 46 % 1015,9 hPa 0,0 l/m 6,6 km/h (2 Bft) O 90 -1,3 C 9,7 C 10,0 km/h (2 Bft)
02.04.2020 11:34 9,6 C 20,2 C 4,0 C 0,0 C 46 % 1015,9 hPa 0,0 l/m 6,0 km/h (2 Bft) O-SO 112 -1,4 C 9,6 C 7,7 km/h (2 Bft)
02.04.2020 11:32 9,6 C 20,2 C 4,0 C 0,0 C 47 % 1015,9 hPa 0,0 l/m 5,3 km/h (1 Bft) O-SO 112 -1,1 C 9,6 C 19,1 km/h (3 Bft)
02.04.2020 11:30 9,4 C 19,0 C 3,9 C 0,0 C 46 % 1015,9 hPa 0,0 l/m 5,1 km/h (1 Bft) O-NO 67 -1,6 C 9,4 C 19,1 km/h (3 Bft)
02.04.2020 11:28 9,3 C 17,3 C 3,9 C 0,0 C 46 % 1015,9 hPa 0,0 l/m 5,0 km/h (1 Bft) NO 45 -1,7 C 9,3 C 7,5 km/h (2 Bft)
02.04.2020 11:26 9,3 C 15,9 C 3,9 C 0,0 C 47 % 1015,9 hPa 0,0 l/m 4,8 km/h (1 Bft) O-SO 112 -1,4 C 9,3 C 6,2 km/h (2 Bft)
02.04.2020 11:24 9,2 C 14,8 C 3,9 C 0,0 C 47 % 1015,9 hPa 0,0 l/m 5,5 km/h (1 Bft) SO 135 -1,5 C 9,2 C 2,9 km/h (1 Bft)
02.04.2020 11:22 9,2 C 13,9 C 3,9 C 0,0 C 47 % 1015,9 hPa 0,0 l/m 5,6 km/h (1 Bft) O-NO 67 -1,5 C 9,2 C 11,2 km/h (2 Bft)
02.04.2020 11:20 9,2 C 14,4 C 3,9 C 0,0 C 47 % 1015,9 hPa 0,0 l/m 5,3 km/h (1 Bft) S-SO 157 -1,5 C 9,2 C 8,3 km/h (2 Bft)
02.04.2020 11:18 9,2 C 14,5 C 3,9 C 0,0 C 47 % 1015,9 hPa 0,0 l/m 4,8 km/h (1 Bft) NO 45 -1,5 C 9,2 C 10,6 km/h (2 Bft)
02.04.2020 11:16 9,1 C 15,9 C 3,9 C 0,0 C 47 % 1015,9 hPa 0,0 l/m 4,5 km/h (1 Bft) O-NO 67 -1,6 C 9,1 C 9,5 km/h (2 Bft)
02.04.2020 11:14 9,1 C 16,6 C 3,8 C 0,0 C 47 % 1015,9 hPa 0,0 l/m 4,7 km/h (1 Bft) O-NO 67 -1,6 C 9,1 C 7,3 km/h (2 Bft)
02.04.2020 11:12 9,0 C 16,4 C 3,8 C 0,0 C 48 % 1015,9 hPa 0,0 l/m 4,3 km/h (1 Bft) O-NO 67 -1,4 C 9,0 C 10,6 km/h (2 Bft)
02.04.2020 11:10 8,9 C 14,6 C 3,8 C 0,0 C 48 % 1016,3 hPa 0,0 l/m 4,3 km/h (1 Bft) N-NO 22 -1,5 C 8,9 C 0,0 km/h (0 Bft)
02.04.2020 11:08 8,8 C 12,9 C 3,8 C 0,0 C 48 % 1016,3 hPa 0,0 l/m 4,5 km/h (1 Bft) SO 135 -1,6 C 8,8 C 3,1 km/h (1 Bft)
02.04.2020 11:06 8,7 C 12,1 C 3,8 C 0,0 C 48 % 1016,3 hPa 0,0 l/m 4,8 km/h (1 Bft) O-NO 67 -1,7 C 8,7 C 6,2 km/h (2 Bft)
02.04.2020 11:04 8,6 C 12,1 C 3,8 C 0,0 C 49 % 1016,3 hPa 0,0 l/m 4,5 km/h (1 Bft) O-SO 112 -1,5 C 8,6 C 8,3 km/h (2 Bft)
02.04.2020 11:02 8,5 C 12,4 C 3,8 C 0,0 C 49 % 1016,3 hPa 0,0 l/m 4,2 km/h (1 Bft) SO 135 -1,6 C 8,5 C 9,5 km/h (2 Bft)
02.04.2020 11:00 8,4 C 12,5 C 3,8 C 0,0 C 49 % 1016,3 hPa 0,0 l/m 4,2 km/h (1 Bft) NO 45 -1,7 C 8,4 C 4,8 km/h (1 Bft)
02.04.2020 10:58 8,3 C 13,2 C 3,8 C 0,0 C 50 % 1016,3 hPa 0,0 l/m 3,7 km/h (1 Bft) NO 45 -1,5 C 8,3 C 5,2 km/h (1 Bft)
02.04.2020 10:56 8,3 C 14,3 C 3,8 C 0,0 C 50 % 1016,3 hPa 0,0 l/m 3,9 km/h (1 Bft) O 90 -1,5 C 8,3 C 7,9 km/h (2 Bft)
02.04.2020 10:54 7,9 C 14,9 C 3,9 C 0,0 C 50 % 1016,3 hPa 0,0 l/m 3,9 km/h (1 Bft) O-NO 67 -1,9 C 7,9 C 7,9 km/h (2 Bft)
02.04.2020 10:52 7,9 C 14,9 C 3,9 C 0,0 C 50 % 1016,3 hPa 0,0 l/m 3,5 km/h (1 Bft) O-SO 112 -1,9 C 7,9 C 7,7 km/h (2 Bft)
02.04.2020 10:50 7,7 C 14,8 C 3,9 C 0,0 C 50 % 1016,4 hPa 0,0 l/m 3,2 km/h (1 Bft) SO 135 -2,1 C 7,7 C 6,2 km/h (2 Bft)
02.04.2020 10:48 7,5 C 14,3 C 3,8 C 0,0 C 50 % 1016,4 hPa 0,0 l/m 3,1 km/h (1 Bft) S-SO 157 -2,2 C 7,5 C 3,7 km/h (1 Bft)
02.04.2020 10:46 7,3 C 14,6 C 3,8 C 0,0 C 50 % 1016,4 hPa 0,0 l/m 2,9 km/h (1 Bft) NO 45 -2,4 C 7,3 C 6,0 km/h (2 Bft)
02.04.2020 10:44 7,2 C 14,8 C 3,8 C 0,0 C 50 % 1016,4 hPa 0,0 l/m 2,1 km/h (1 Bft) O-SO 112 -2,5 C 7,2 C 6,2 km/h (2 Bft)
02.04.2020 10:42 7,1 C 13,9 C 3,8 C 0,0 C 51 % 1016,4 hPa 0,0 l/m 2,1 km/h (1 Bft) O-NO 67 -2,3 C 7,1 C 6,6 km/h (2 Bft)
02.04.2020 10:40 6,8 C 11,2 C 3,8 C 0,0 C 50 % 1016,4 hPa 0,0 l/m 2,1 km/h (1 Bft) N-NO 22 -2,9 C 6,8 C 0,0 km/h (0 Bft)
02.04.2020 10:38 6,8 C 11,2 C 3,8 C 0,0 C 50 % 1016,4 hPa 0,0 l/m 2,3 km/h (1 Bft) SO 135 -2,9 C 6,8 C 6,6 km/h (2 Bft)
02.04.2020 10:36 6,7 C 11,2 C 3,8 C 0,0 C 51 % 1016,4 hPa 0,0 l/m 2,1 km/h (1 Bft) S-SO 157 -2,7 C 6,7 C 4,1 km/h (1 Bft)
02.04.2020 10:34 6,6 C 11,9 C 3,8 C 0,0 C 51 % 1016,4 hPa 0,0 l/m 2,1 km/h (1 Bft) O 90 -2,8 C 6,6 C 3,1 km/h (1 Bft)
02.04.2020 10:32 6,5 C 13,0 C 3,8 C 0,0 C 51 % 1016,4 hPa 0,0 l/m 1,9 km/h (1 Bft) S-SO 157 -2,9 C 6,5 C 4,6 km/h (1 Bft)
02.04.2020 10:30 6,3 C 14,9 C 3,8 C 0,0 C 52 % 1016,2 hPa 0,0 l/m 1,6 km/h (1 Bft) SW 225 -2,8 C 6,3 C 2,3 km/h (1 Bft)
02.04.2020 10:28 6,2 C 16,9 C 3,8 C 0,0 C 53 % 1016,2 hPa 0,0 l/m 1,1 km/h (1 Bft) NO 45 -2,7 C 6,2 C 3,7 km/h (1 Bft)
02.04.2020 10:26 5,9 C 16,7 C 3,8 C 0,0 C 53 % 1016,2 hPa 0,0 l/m 1,0 km/h (0 Bft) O-NO 67 -2,9 C 5,9 C 4,8 km/h (1 Bft)
02.04.2020 10:24 5,9 C 14,8 C 3,8 C 0,0 C 53 % 1016,2 hPa 0,0 l/m 0,8 km/h (0 Bft) S 180 -2,9 C 5,9 C 2,7 km/h (1 Bft)
02.04.2020 10:22 5,9 C 13,8 C 3,8 C 0,0 C 54 % 1016,2 hPa 0,0 l/m 0,5 km/h (0 Bft) NO 45 -2,7 C 5,9 C 2,5 km/h (1 Bft)
02.04.2020 10:20 5,6 C 12,6 C 3,8 C 0,0 C 55 % 1016,2 hPa 0,0 l/m 0,5 km/h (0 Bft) N 360 -2,7 C 5,6 C 2,1 km/h (1 Bft)
02.04.2020 10:18 5,6 C 13,4 C 3,8 C 0,0 C 55 % 1016,2 hPa 0,0 l/m 0,5 km/h (0 Bft) N 360 -2,7 C 5,6 C 0,0 km/h (0 Bft)
02.04.2020 10:16 5,5 C 13,9 C 3,8 C 0,0 C 54 % 1016,2 hPa 0,0 l/m 0,5 km/h (0 Bft) SW 225 -3,1 C 5,5 C 0,0 km/h (0 Bft)
02.04.2020 10:14 5,5 C 15,4 C 3,8 C 0,0 C 54 % 1016,2 hPa 0,0 l/m 0,6 km/h (0 Bft) SO 135 -3,1 C 5,5 C 2,3 km/h (1 Bft)
02.04.2020 10:12 5,4 C 18,0 C 3,8 C 0,0 C 55 % 1016,2 hPa 0,0 l/m 0,8 km/h (0 Bft) N-NO 22 -2,9 C 5,4 C 2,1 km/h (1 Bft)
02.04.2020 10:10 5,3 C 18,0 C 3,8 C 0,0 C 56 % 1016,3 hPa 0,0 l/m 1,4 km/h (1 Bft) NO 45 -2,8 C 5,3 C 0,0 km/h (0 Bft)
02.04.2020 10:08 5,2 C 18,0 C 3,8 C 0,0 C 56 % 1016,3 hPa 0,0 l/m 1,4 km/h (1 Bft) O-NO 67 -2,8 C 5,2 C 1,9 km/h (1 Bft)
02.04.2020 10:06 5,2 C 17,4 C 3,8 C 0,0 C 56 % 1016,3 hPa 0,0 l/m 1,6 km/h (1 Bft) O-NO 67 -2,8 C 5,2 C 0,0 km/h (0 Bft)
02.04.2020 10:04 4,8 C 16,0 C 3,8 C 0,0 C 57 % 1016,3 hPa 0,0 l/m 1,9 km/h (1 Bft) O-NO 67 -3,0 C 4,8 C 3,3 km/h (1 Bft)
02.04.2020 10:02 4,7 C 15,6 C 3,9 C 0,0 C 57 % 1016,3 hPa 0,0 l/m 1,9 km/h (1 Bft) SO 135 -3,1 C 4,7 C 4,6 km/h (1 Bft)
02.04.2020 10:00 4,6 C 15,0 C 3,9 C 0,0 C 57 % 1016,3 hPa 0,0 l/m 1,4 km/h (1 Bft) SO 135 -3,2 C 4,6 C 4,4 km/h (1 Bft)
02.04.2020 09:58 4,3 C 14,0 C 3,8 C 0,0 C 57 % 1016,3 hPa 0,0 l/m 1,3 km/h (1 Bft) O 90 -3,5 C 4,3 C 3,9 km/h (1 Bft)
02.04.2020 09:56 4,3 C 12,6 C 3,8 C 0,0 C 57 % 1016,3 hPa 0,0 l/m 1,1 km/h (1 Bft) O-SO 112 -3,5 C 4,3 C 0,0 km/h (0 Bft)
02.04.2020 09:54 4,0 C 13,3 C 3,8 C 0,0 C 57 % 1016,3 hPa 0,0 l/m 1,1 km/h (1 Bft) O-SO 112 -3,7 C 4,0 C 3,1 km/h (1 Bft)
02.04.2020 09:52 4,0 C 13,3 C 3,8 C 0,0 C 57 % 1016,3 hPa 0,0 l/m 1,0 km/h (0 Bft) S-SW 202 -3,7 C 4,0 C 2,3 km/h (1 Bft)
02.04.2020 09:50 3,8 C 14,7 C 3,8 C 0,0 C 57 % 1016,8 hPa 0,0 l/m 1,1 km/h (1 Bft) S-SW 202 -3,9 C 3,8 C 2,9 km/h (1 Bft)
02.04.2020 09:48 3,7 C 15,3 C 3,8 C 0,0 C 57 % 1016,8 hPa 0,0 l/m 1,1 km/h (1 Bft) O 90 -4,0 C 3,7 C 2,1 km/h (1 Bft)
02.04.2020 09:46 3,7 C 14,6 C 3,8 C 0,0 C 57 % 1016,8 hPa 0,0 l/m 1,1 km/h (1 Bft) O-SO 112 -4,0 C 3,7 C 3,3 km/h (1 Bft)
02.04.2020 09:44 3,3 C 14,7 C 3,8 C 0,0 C 58 % 1016,8 hPa 0,0 l/m 0,8 km/h (0 Bft) SO 135 -4,2 C 3,3 C 0,0 km/h (0 Bft)
02.04.2020 09:42 3,3 C 14,5 C 3,8 C 0,0 C 58 % 1016,8 hPa 0,0 l/m 0,6 km/h (0 Bft) SW 225 -4,2 C 3,3 C 1,9 km/h (1 Bft)
02.04.2020 09:40 3,2 C 14,3 C 3,8 C 0,0 C 58 % 1016,8 hPa 0,0 l/m 0,6 km/h (0 Bft) W-SW 247 -4,3 C 3,2 C 3,5 km/h (1 Bft)
02.04.2020 09:38 3,1 C 14,0 C 3,8 C 0,0 C 58 % 1016,8 hPa 0,0 l/m 0,5 km/h (0 Bft) SW 225 -4,3 C 3,1 C 3,9 km/h (1 Bft)
02.04.2020 09:36 3,0 C 14,0 C 3,8 C 0,0 C 59 % 1016,8 hPa 0,0 l/m 0,5 km/h (0 Bft) S-SO 157 -4,2 C 3,0 C 2,1 km/h (1 Bft)
02.04.2020 09:34 3,0 C 13,8 C 3,8 C 0,0 C 59 % 1016,8 hPa 0,0 l/m 0,6 km/h (0 Bft) O-SO 112 -4,2 C 3,0 C 0,0 km/h (0 Bft)
02.04.2020 09:32 2,9 C 13,8 C 3,8 C 0,0 C 60 % 1016,8 hPa 0,0 l/m 0,8 km/h (0 Bft) W-SW 247 -4,1 C 2,9 C 0,0 km/h (0 Bft)
02.04.2020 09:30 2,8 C 14,1 C 3,8 C 0,0 C 60 % 1016,5 hPa 0,0 l/m 1,3 km/h (1 Bft) S-SW 202 -4,2 C 2,8 C 2,1 km/h (1 Bft)
02.04.2020 09:28 2,4 C 14,0 C 3,8 C 0,0 C 61 % 1016,5 hPa 0,0 l/m 1,3 km/h (1 Bft) S-SO 157 -4,3 C 2,4 C 2,1 km/h (1 Bft)
02.04.2020 09:26 2,4 C 14,1 C 3,8 C 0,0 C 61 % 1016,5 hPa 0,0 l/m 1,6 km/h (1 Bft) W-SW 247 -4,3 C 2,4 C 2,5 km/h (1 Bft)
02.04.2020 09:24 2,4 C 14,4 C 3,8 C 0,0 C 61 % 1016,5 hPa 0,0 l/m 1,8 km/h (1 Bft) O-SO 112 -4,3 C 2,4 C 0,0 km/h (0 Bft)
02.04.2020 09:22 2,3 C 14,1 C 3,8 C 0,0 C 61 % 1016,5 hPa 0,0 l/m 2,1 km/h (1 Bft) O-SO 112 -4,4 C 2,3 C 5,8 km/h (2 Bft)
02.04.2020 09:20 2,2 C 14,2 C 3,8 C 0,0 C 61 % 1016,5 hPa 0,0 l/m 2,6 km/h (1 Bft) SO 135 -4,5 C 2,2 C 4,1 km/h (1 Bft)
02.04.2020 09:18 2,2 C 14,1 C 3,8 C 0,0 C 61 % 1016,5 hPa 0,0 l/m 2,6 km/h (1 Bft) S-SO 157 -4,5 C 2,2 C 2,7 km/h (1 Bft)
02.04.2020 09:16 2,2 C 13,8 C 3,8 C 0,0 C 61 % 1016,5 hPa 0,0 l/m 2,9 km/h (1 Bft) SO 135 -4,5 C 2,2 C 5,8 km/h (2 Bft)
02.04.2020 09:14 2,1 C 13,7 C 3,8 C 0,0 C 61 % 1016,5 hPa 0,0 l/m 2,9 km/h (1 Bft) O-SO 112 -4,6 C 2,1 C 4,4 km/h (1 Bft)
02.04.2020 09:12 1,9 C 13,7 C 3,8 C 0,0 C 62 % 1016,5 hPa 0,0 l/m 2,7 km/h (1 Bft) O-SO 112 -4,6 C 1,9 C 3,5 km/h (1 Bft)
02.04.2020 09:10 1,9 C 13,7 C 3,8 C 0,0 C 62 % 1016,9 hPa 0,0 l/m 2,7 km/h (1 Bft) SO 135 -4,6 C 1,9 C 5,4 km/h (1 Bft)
02.04.2020 09:08 1,9 C 14,0 C 3,8 C 0,0 C 62 % 1016,9 hPa 0,0 l/m 2,6 km/h (1 Bft) SO 135 -4,6 C 1,9 C 3,5 km/h (1 Bft)
02.04.2020 09:06 1,8 C 13,8 C 3,8 C 0,0 C 62 % 1016,9 hPa 0,0 l/m 2,4 km/h (1 Bft) O-SO 112 -4,7 C 1,8 C 3,5 km/h (1 Bft)
02.04.2020 09:04 1,7 C 13,5 C 3,8 C 0,0 C 62 % 1016,9 hPa 0,0 l/m 2,4 km/h (1 Bft) O-SO 112 -4,8 C 1,7 C 3,3 km/h (1 Bft)
02.04.2020 09:02 1,6 C 13,1 C 3,8 C 0,0 C 63 % 1016,9 hPa 0,0 l/m 2,3 km/h (1 Bft) O-NO 67 -4,7 C 1,6 C 3,3 km/h (1 Bft)
02.04.2020 09:00 1,2 C 13,1 C 3,8 C 0,0 C 63 % 1016,9 hPa 0,0 l/m 2,1 km/h (1 Bft) O-SO 112 -5,0 C 1,2 C 3,3 km/h (1 Bft)
02.04.2020 08:58 1,2 C 12,7 C 3,8 C 0,0 C 63 % 1016,9 hPa 0,0 l/m 1,9 km/h (1 Bft) O-SO 112 -5,0 C 1,2 C 3,9 km/h (1 Bft)
02.04.2020 08:56 1,1 C 12,2 C 3,8 C 0,0 C 63 % 1016,9 hPa 0,0 l/m 1,9 km/h (1 Bft) O-NO 67 -5,1 C 1,1 C 3,7 km/h (1 Bft)
02.04.2020 08:54 1,1 C 11,9 C 3,8 C 0,0 C 63 % 1016,9 hPa 0,0 l/m 1,4 km/h (1 Bft) O 90 -5,1 C 1,1 C 3,5 km/h (1 Bft)
02.04.2020 08:52 0,9 C 11,8 C 3,9 C 0,0 C 63 % 1016,9 hPa 0,0 l/m 1,3 km/h (1 Bft) O-SO 112 -5,3 C 0,9 C 4,1 km/h (1 Bft)
02.04.2020 08:50 0,8 C 11,4 C 3,9 C 0,0 C 63 % 1016,9 hPa 0,0 l/m 1,4 km/h (1 Bft) O-SO 112 -5,4 C 0,8 C 2,7 km/h (1 Bft)
02.04.2020 08:48 0,7 C 11,0 C 3,9 C 0,0 C 63 % 1016,9 hPa 0,0 l/m 1,3 km/h (1 Bft) O-NO 67 -5,5 C 0,7 C 2,9 km/h (1 Bft)
02.04.2020 08:46 0,4 C 10,7 C 3,9 C 0,0 C 63 % 1016,9 hPa 0,0 l/m 1,3 km/h (1 Bft) O-NO 67 -5,8 C 0,4 C 3,5 km/h (1 Bft)
02.04.2020 08:44 0,4 C 10,3 C 3,9 C 0,0 C 63 % 1016,9 hPa 0,0 l/m 1,6 km/h (1 Bft) S-SO 157 -5,8 C 0,4 C 1,9 km/h (1 Bft)
02.04.2020 08:42 0,4 C 10,1 C 3,9 C 0,0 C 63 % 1016,9 hPa 0,0 l/m 1,4 km/h (1 Bft) O-NO 67 -5,8 C 0,4 C 2,7 km/h (1 Bft)
02.04.2020 08:40 0,3 C 9,6 C 3,9 C 0,0 C 64 % 1016,9 hPa 0,0 l/m 1,4 km/h (1 Bft) SO 135 -5,7 C 0,3 C 3,5 km/h (1 Bft)
02.04.2020 08:38 0,3 C 9,2 C 3,9 C 0,0 C 64 % 1016,9 hPa 0,0 l/m 1,8 km/h (1 Bft) O-NO 67 -5,7 C 0,3 C 2,1 km/h (1 Bft)
02.04.2020 08:36 0,2 C 8,6 C 3,9 C 0,0 C 64 % 1016,9 hPa 0,0 l/m 1,8 km/h (1 Bft) S-SO 157 -5,8 C 0,2 C 3,1 km/h (1 Bft)
02.04.2020 08:34 0,1 C 8,3 C 3,9 C 0,0 C 65 % 1016,9 hPa 0,0 l/m 1,8 km/h (1 Bft) SO 135 -5,7 C 0,1 C 2,5 km/h (1 Bft)
02.04.2020 08:32 0,1 C 7,3 C 3,9 C 0,0 C 65 % 1016,9 hPa 0,0 l/m 1,9 km/h (1 Bft) SO 135 -5,7 C 0,1 C 0,0 km/h (0 Bft)
02.04.2020 08:30 0,1 C 7,3 C 3,9 C 0,0 C 65 % 1017,0 hPa 0,0 l/m 2,1 km/h (1 Bft) O 90 -5,7 C 0,1 C 2,3 km/h (1 Bft)
02.04.2020 08:28 -0,1 C 6,8 C 3,9 C 0,0 C 65 % 1017,0 hPa 0,0 l/m 2,3 km/h (1 Bft) SO 135 -5,9 C -0,1 C 4,4 km/h (1 Bft)
02.04.2020 08:26 -0,2 C 5,8 C 3,9 C 0,0 C 66 % 1017,0 hPa 0,0 l/m 2,3 km/h (1 Bft) O-SO 112 -5,8 C -0,2 C 3,5 km/h (1 Bft)
02.04.2020 08:24 -0,3 C 5,1 C 3,9 C 0,0 C 66 % 1017,0 hPa 0,0 l/m 2,3 km/h (1 Bft) O-SO 112 -5,9 C -0,3 C 2,9 km/h (1 Bft)
02.04.2020 08:22 -0,4 C 3,5 C 3,9 C 0,0 C 66 % 1017,0 hPa 0,0 l/m 1,9 km/h (1 Bft) O-SO 112 -6,0 C -0,4 C 0,0 km/h (0 Bft)
02.04.2020 08:20 -0,6 C 2,8 C 3,9 C 0,0 C 66 % 1017,0 hPa 0,0 l/m 2,3 km/h (1 Bft) SO 135 -6,1 C -0,6 C 2,5 km/h (1 Bft)
02.04.2020 08:18 -0,9 C 1,9 C 3,9 C 0,0 C 67 % 1017,0 hPa 0,0 l/m 1,9 km/h (1 Bft) SO 135 -6,2 C -0,9 C 3,7 km/h (1 Bft)
02.04.2020 08:16 -1,1 C 1,2 C 3,9 C 0,0 C 67 % 1017,0 hPa 0,0 l/m 1,4 km/h (1 Bft) O 90 -6,4 C -1,1 C 4,6 km/h (1 Bft)
02.04.2020 08:14 -1,3 C 0,5 C 3,9 C 0,0 C 66 % 1017,0 hPa 0,0 l/m 1,0 km/h (0 Bft) O-SO 112 -6,8 C -1,3 C 0,0 km/h (0 Bft)
02.04.2020 08:12 -1,4 C 0,3 C 3,9 C 0,0 C 66 % 1017,0 hPa 0,0 l/m 1,1 km/h (1 Bft) O-SO 112 -6,9 C -1,4 C 2,5 km/h (1 Bft)
02.04.2020 08:10 -1,4 C 0,3 C 3,9 C 0,0 C 67 % 1017,2 hPa 0,0 l/m 1,1 km/h (1 Bft) O 90 -6,7 C -1,4 C 3,5 km/h (1 Bft)
02.04.2020 08:08 -1,5 C 0,3 C 3,9 C 0,0 C 67 % 1017,2 hPa 0,0 l/m 1,3 km/h (1 Bft) O 90 -6,8 C -1,5 C 2,3 km/h (1 Bft)
02.04.2020 08:06 -1,6 C 0,0 C 3,9 C 0,0 C 67 % 1017,2 hPa 0,0 l/m 1,8 km/h (1 Bft) O-SO 112 -6,9 C -1,6 C 0,0 km/h (0 Bft)
02.04.2020 08:04 -1,8 C -0,1 C 3,9 C 0,0 C 67 % 1017,2 hPa 0,0 l/m 1,9 km/h (1 Bft) O 90 -7,1 C -1,8 C 0,0 km/h (0 Bft)
02.04.2020 08:02 -2,0 C -0,2 C 3,9 C 0,0 C 67 % 1017,2 hPa 0,0 l/m 2,1 km/h (1 Bft) S 180 -7,3 C -2,0 C 5,6 km/h (1 Bft)
02.04.2020 08:00 -2,0 C -0,5 C 3,9 C 0,0 C 67 % 1017,2 hPa 0,0 l/m 1,8 km/h (1 Bft) O 90 -7,3 C -2,0 C 4,1 km/h (1 Bft)
02.04.2020 07:58 -2,2 C -0,8 C 3,9 C 0,0 C 67 % 1017,2 hPa 0,0 l/m 1,4 km/h (1 Bft) O-NO 67 -7,5 C -2,2 C 5,6 km/h (1 Bft)
02.04.2020 07:56 -2,3 C -0,8 C 3,9 C 0,0 C 67 % 1017,2 hPa 0,0 l/m 1,4 km/h (1 Bft) N-NO 22 -7,6 C -2,3 C 3,3 km/h (1 Bft)
02.04.2020 07:54 -2,3 C -0,6 C 3,9 C 0,0 C 67 % 1017,2 hPa 0,0 l/m 1,4 km/h (1 Bft) N-NO 22 -7,6 C -2,3 C 2,9 km/h (1 Bft)
02.04.2020 07:52 -2,3 C -0,8 C 3,9 C 0,0 C 68 % 1017,2 hPa 0,0 l/m 1,4 km/h (1 Bft) NO 45 -7,4 C -2,3 C 0,0 km/h (0 Bft)
02.04.2020 07:50 -2,6 C -1,1 C 3,9 C 0,0 C 68 % 1016,9 hPa 0,0 l/m 1,6 km/h (1 Bft) O-SO 112 -7,7 C -2,6 C 0,0 km/h (0 Bft)
02.04.2020 07:48 -2,6 C -1,1 C 3,9 C 0,0 C 68 % 1016,9 hPa 0,0 l/m 1,9 km/h (1 Bft) O-SO 112 -7,7 C -2,6 C 3,1 km/h (1 Bft)
02.04.2020 07:46 -2,8 C -1,2 C 3,9 C 0,0 C 68 % 1016,9 hPa 0,0 l/m 1,8 km/h (1 Bft) O-SO 112 -7,9 C -2,8 C 5,2 km/h (1 Bft)
02.04.2020 07:44 -2,8 C -1,3 C 3,9 C 0,0 C 68 % 1016,9 hPa 0,0 l/m 1,1 km/h (1 Bft) NO 45 -7,9 C -2,8 C 3,3 km/h (1 Bft)
02.04.2020 07:42 -3,0 C -1,3 C 3,9 C 0,0 C 68 % 1016,9 hPa 0,0 l/m 1,1 km/h (1 Bft) O-NO 67 -8,1 C -3,0 C 2,1 km/h (1 Bft)
02.04.2020 07:40 -3,2 C -1,4 C 3,9 C 0,0 C 68 % 1016,9 hPa 0,0 l/m 1,3 km/h (1 Bft) O-NO 67 -8,2 C -3,2 C 2,9 km/h (1 Bft)
02.04.2020 07:38 -3,2 C -1,6 C 4,1 C 0,0 C 68 % 1016,9 hPa 0,0 l/m 1,4 km/h (1 Bft) NO 45 -8,2 C -3,2 C 2,5 km/h (1 Bft)
02.04.2020 07:36 -3,3 C -1,7 C 4,1 C 0,0 C 68 % 1016,9 hPa 0,0 l/m 1,3 km/h (1 Bft) O-NO 67 -8,3 C -3,3 C 0,0 km/h (0 Bft)
02.04.2020 07:34 -3,6 C -2,0 C 4,1 C 0,0 C 68 % 1016,9 hPa 0,0 l/m 1,4 km/h (1 Bft) SO 135 -8,6 C -3,6 C 0,0 km/h (0 Bft)
02.04.2020 07:32 -3,7 C -2,1 C 4,1 C 0,0 C 68 % 1016,9 hPa 0,0 l/m 1,6 km/h (1 Bft) O-SO 112 -8,7 C -3,7 C 2,3 km/h (1 Bft)
02.04.2020 07:30 -3,7 C -2,3 C 4,1 C 0,0 C 68 % 1016,9 hPa 0,0 l/m 1,4 km/h (1 Bft) O-SO 112 -8,7 C -3,7 C 2,9 km/h (1 Bft)
02.04.2020 07:28 -3,9 C -2,4 C 4,1 C 0,0 C 68 % 1016,9 hPa 0,0 l/m 1,4 km/h (1 Bft) O-NO 67 -8,9 C -3,9 C 5,2 km/h (1 Bft)
02.04.2020 07:26 -3,9 C -2,4 C 4,1 C 0,0 C 68 % 1016,9 hPa 0,0 l/m 1,3 km/h (1 Bft) NW 315 -8,9 C -3,9 C 0,0 km/h (0 Bft)
02.04.2020 07:24 -4,0 C -2,4 C 4,1 C 0,0 C 68 % 1016,9 hPa 0,0 l/m 1,3 km/h (1 Bft) NO 45 -9,0 C -4,0 C 0,0 km/h (0 Bft)
02.04.2020 07:22 -4,0 C -2,4 C 4,1 C 0,0 C 68 % 1016,9 hPa 0,0 l/m 1,4 km/h (1 Bft) O-NO 67 -9,0 C -4,0 C 0,0 km/h (0 Bft)
02.04.2020 07:20 -4,1 C -2,5 C 4,1 C 0,0 C 68 % 1016,9 hPa 0,0 l/m 1,4 km/h (1 Bft) N-NO 22 -9,1 C -4,1 C 2,3 km/h (1 Bft)
02.04.2020 07:18 -4,1 C -2,7 C 4,1 C 0,0 C 68 % 1016,9 hPa 0,0 l/m 1,3 km/h (1 Bft) NO 45 -9,1 C -4,1 C 3,7 km/h (1 Bft)
02.04.2020 07:16 -4,3 C -2,7 C 4,1 C 0,0 C 68 % 1016,9 hPa 0,0 l/m 0,8 km/h (0 Bft) O-NO 67 -9,3 C -4,3 C 0,0 km/h (0 Bft)
02.04.2020 07:14 -4,3 C -2,6 C 4,1 C 0,0 C 68 % 1016,9 hPa 0,0 l/m 1,0 km/h (0 Bft) O-NO 67 -9,3 C -4,3 C 2,1 km/h (1 Bft)
02.04.2020 07:12 -4,3 C -2,8 C 4,1 C 0,0 C 68 % 1016,9 hPa 0,0 l/m 1,1 km/h (1 Bft) NO 45 -9,3 C -4,3 C 2,7 km/h (1 Bft)
02.04.2020 07:10 -4,3 C -2,8 C 4,1 C 0,0 C 68 % 1016,8 hPa 0,0 l/m 1,0 km/h (0 Bft) O 90 -9,3 C -4,3 C 0,0 km/h (0 Bft)
02.04.2020 07:08 -4,4 C -2,9 C 4,1 C 0,0 C 68 % 1016,8 hPa 0,0 l/m 1,4 km/h (1 Bft) O-NO 67 -9,4 C -4,4 C 2,1 km/h (1 Bft)
02.04.2020 07:06 -4,4 C -2,9 C 4,1 C 0,0 C 67 % 1016,8 hPa 0,0 l/m 1,4 km/h (1 Bft) O-NO 67 -9,6 C -4,4 C 0,0 km/h (0 Bft)
02.04.2020 07:04 -4,4 C -3,0 C 4,1 C 0,0 C 67 % 1016,8 hPa 0,0 l/m 1,6 km/h (1 Bft) NO 45 -9,6 C -4,4 C 0,0 km/h (0 Bft)
02.04.2020 07:02 -4,4 C -3,0 C 4,1 C 0,0 C 67 % 1016,8 hPa 0,0 l/m 1,3 km/h (1 Bft) O-NO 67 -9,6 C -4,4 C 3,7 km/h (1 Bft)
02.04.2020 07:00 -4,4 C -2,9 C 4,1 C 0,0 C 67 % 1016,8 hPa 0,0 l/m 0,8 km/h (0 Bft) N 360 -9,6 C -4,4 C 0,0 km/h (0 Bft)
02.04.2020 06:58 -4,3 C -2,9 C 4,1 C 0,0 C 67 % 1016,8 hPa 0,0 l/m 0,5 km/h (0 Bft) N-NW 337 -9,5 C -4,3 C 2,7 km/h (1 Bft)
02.04.2020 06:56 -4,4 C -2,9 C 4,1 C 0,0 C 67 % 1016,8 hPa 0,0 l/m 0,3 km/h (0 Bft) N-NO 22 -9,6 C -4,4 C 2,5 km/h (1 Bft)
02.04.2020 06:54 -4,4 C -3,1 C 4,1 C 0,0 C 67 % 1016,8 hPa 0,0 l/m 0,0 km/h (0 Bft) NO 45 -9,6 C -4,4 C 0,0 km/h (0 Bft)
02.04.2020 06:52 -4,4 C -3,0 C 4,1 C 0,0 C 67 % 1016,8 hPa 0,0 l/m 0,0 km/h (0 Bft) O-SO 112 -9,6 C -4,4 C 0,0 km/h (0 Bft)
02.04.2020 06:50 -4,4 C -3,0 C 4,1 C 0,0 C 67 % 1016,7 hPa 0,0 l/m 0,0 km/h (0 Bft) O-NO 67 -9,6 C -4,4 C 0,0 km/h (0 Bft)
02.04.2020 06:48 -4,4 C -3,0 C 4,1 C 0,0 C 67 % 1016,7 hPa 0,0 l/m 0,0 km/h (0 Bft) O-SO 112 -9,6 C -4,4 C 0,0 km/h (0 Bft)
02.04.2020 06:46 -4,4 C -3,2 C 4,1 C 0,0 C 67 % 1016,7 hPa 0,0 l/m 0,0 km/h (0 Bft) O-SO 112 -9,6 C -4,4 C 0,0 km/h (0 Bft)
02.04.2020 06:44 -4,4 C -3,2 C 4,1 C 0,0 C 67 % 1016,7 hPa 0,0 l/m 0,2 km/h (0 Bft) W-SW 247 -9,6 C -4,4 C 0,0 km/h (0 Bft)
02.04.2020 06:42 -4,4 C -3,2 C 4,1 C 0,0 C 67 % 1016,7 hPa 0,0 l/m 0,2 km/h (0 Bft) NO 45 -9,6 C -4,4 C 0,0 km/h (0 Bft)
02.04.2020 06:40 -4,4 C -3,3 C 4,1 C 0,0 C 67 % 1016,7 hPa 0,0 l/m 0,2 km/h (0 Bft) W 270 -9,6 C -4,4 C 0,0 km/h (0 Bft)
02.04.2020 06:38 -4,4 C -3,2 C 4,2 C 0,0 C 67 % 1016,7 hPa 0,0 l/m 0,3 km/h (0 Bft) N 360 -9,6 C -4,4 C 0,0 km/h (0 Bft)
02.04.2020 06:36 -4,4 C -3,2 C 4,2 C 0,0 C 67 % 1016,7 hPa 0,0 l/m 0,5 km/h (0 Bft) NO 45 -9,6 C -4,4 C 0,0 km/h (0 Bft)
02.04.2020 06:34 -4,3 C -3,2 C 4,2 C 0,0 C 67 % 1016,7 hPa 0,0 l/m 0,5 km/h (0 Bft) NO 45 -9,5 C -4,3 C 2,7 km/h (1 Bft)
02.04.2020 06:32 -4,3 C -3,3 C 4,2 C 0,0 C 67 % 1016,7 hPa 0,0 l/m 0,5 km/h (0 Bft) NO 45 -9,5 C -4,3 C 0,0 km/h (0 Bft)
02.04.2020 06:30 -4,3 C -3,2 C 4,1 C 0,0 C 67 % 1016,7 hPa 0,0 l/m 0,5 km/h (0 Bft) N 360 -9,5 C -4,3 C 0,0 km/h (0 Bft)
02.04.2020 06:28 -4,3 C -3,3 C 4,1 C 0,0 C 67 % 1016,7 hPa 0,0 l/m 0,5 km/h (0 Bft) O-NO 67 -9,5 C -4,3 C 3,1 km/h (1 Bft)
02.04.2020 06:26 -4,3 C -3,3 C 4,2 C 0,0 C 67 % 1016,7 hPa 0,0 l/m 0,5 km/h (0 Bft) N-NO 22 -9,5 C -4,3 C 0,0 km/h (0 Bft)
02.04.2020 06:24 -4,3 C -3,3 C 4,2 C 0,0 C 67 % 1016,7 hPa 0,0 l/m 0,5 km/h (0 Bft) O-NO 67 -9,5 C -4,3 C 0,0 km/h (0 Bft)
02.04.2020 06:22 -4,3 C -3,2 C 4,2 C 0,0 C 67 % 1016,7 hPa 0,0 l/m 0,5 km/h (0 Bft) NO 45 -9,5 C -4,3 C 1,9 km/h (1 Bft)
02.04.2020 06:20 -4,3 C -3,2 C 4,2 C 0,0 C 67 % 1016,7 hPa 0,0 l/m 0,5 km/h (0 Bft) N 360 -9,5 C -4,3 C 0,0 km/h (0 Bft)
02.04.2020 06:18 -4,1 C -3,2 C 4,2 C 0,0 C 67 % 1016,7 hPa 0,0 l/m 0,5 km/h (0 Bft) NO 45 -9,3 C -4,1 C 2,1 km/h (1 Bft)
02.04.2020 06:16 -4,1 C -3,2 C 4,2 C 0,0 C 67 % 1016,7 hPa 0,0 l/m 0,3 km/h (0 Bft) NO 45 -9,3 C -4,1 C 2,9 km/h (1 Bft)
02.04.2020 06:14 -4,1 C -3,2 C 4,2 C 0,0 C 67 % 1016,7 hPa 0,0 l/m 0,2 km/h (0 Bft) N 360 -9,3 C -4,1 C 0,0 km/h (0 Bft)
02.04.2020 06:12 -4,1 C -3,2 C 4,2 C 0,0 C 66 % 1016,7 hPa 0,0 l/m 0,3 km/h (0 Bft) NO 45 -9,5 C -4,1 C 0,0 km/h (0 Bft)
02.04.2020 06:10 -4,1 C -3,0 C 4,2 C 0,0 C 66 % 1016,5 hPa 0,0 l/m 0,6 km/h (0 Bft) O-NO 67 -9,5 C -4,1 C 2,7 km/h (1 Bft)
02.04.2020 06:08 -4,1 C -3,0 C 4,2 C 0,0 C 66 % 1016,5 hPa 0,0 l/m 0,6 km/h (0 Bft) O-NO 67 -9,5 C -4,1 C 2,7 km/h (1 Bft)
02.04.2020 06:06 -4,1 C -3,0 C 4,2 C 0,0 C 66 % 1016,5 hPa 0,0 l/m 0,6 km/h (0 Bft) O-NO 67 -9,5 C -4,1 C 2,7 km/h (1 Bft)
02.04.2020 06:04 -4,1 C -3,0 C 4,2 C 0,0 C 66 % 1016,5 hPa 0,0 l/m 0,6 km/h (0 Bft) O-NO 67 -9,5 C -4,1 C 2,7 km/h (1 Bft)
02.04.2020 06:02 -4,1 C -3,0 C 4,2 C 0,0 C 66 % 1016,5 hPa 0,0 l/m 0,6 km/h (0 Bft) O-NO 67 -9,5 C -4,1 C 2,7 km/h (1 Bft)
02.04.2020 06:00 -4,1 C -3,0 C 4,2 C 0,0 C 66 % 1016,5 hPa 0,0 l/m 0,6 km/h (0 Bft) SO 135 -9,5 C -4,1 C 0,0 km/h (0 Bft)
02.04.2020 05:58 -4,1 C -3,0 C 4,2 C 0,0 C 66 % 1016,5 hPa 0,0 l/m 0,8 km/h (0 Bft) NO 45 -9,5 C -4,1 C 2,1 km/h (1 Bft)
02.04.2020 05:56 -4,0 C -3,1 C 4,2 C 0,0 C 66 % 1016,5 hPa 0,0 l/m 0,6 km/h (0 Bft) NO 45 -9,4 C -4,0 C 3,3 km/h (1 Bft)
02.04.2020 05:54 -4,0 C -3,1 C 4,2 C 0,0 C 66 % 1016,5 hPa 0,0 l/m 0,3 km/h (0 Bft) N 360 -9,4 C -4,0 C 3,3 km/h (1 Bft)
02.04.2020 05:52 -4,0 C -3,2 C 4,2 C 0,0 C 66 % 1016,5 hPa 0,0 l/m 0,3 km/h (0 Bft) W 270 -9,4 C -4,0 C 0,0 km/h (0 Bft)
02.04.2020 05:50 -4,0 C -3,1 C 4,2 C 0,0 C 66 % 1016,6 hPa 0,0 l/m 0,3 km/h (0 Bft) SO 135 -9,4 C -4,0 C 0,0 km/h (0 Bft)
02.04.2020 05:48 -4,0 C -3,0 C 4,2 C 0,0 C 66 % 1016,6 hPa 0,0 l/m 0,5 km/h (0 Bft) N-NO 22 -9,4 C -4,0 C 2,7 km/h (1 Bft)
02.04.2020 05:46 -4,0 C -3,1 C 4,2 C 0,0 C 66 % 1016,6 hPa 0,0 l/m 0,3 km/h (0 Bft) SO 135 -9,4 C -4,0 C 0,0 km/h (0 Bft)
02.04.2020 05:44 -4,0 C -3,1 C 4,2 C 0,0 C 66 % 1016,6 hPa 0,0 l/m 0,6 km/h (0 Bft) O-SO 112 -9,4 C -4,0 C 0,0 km/h (0 Bft)
02.04.2020 05:42 -4,0 C -3,0 C 4,2 C 0,0 C 66 % 1016,6 hPa 0,0 l/m 1,0 km/h (0 Bft) NO 45 -9,4 C -4,0 C 0,0 km/h (0 Bft)
02.04.2020 05:40 -4,0 C -3,1 C 4,2 C 0,0 C 66 % 1016,6 hPa 0,0 l/m 1,0 km/h (0 Bft) NO 45 -9,4 C -4,0 C 2,7 km/h (1 Bft)
02.04.2020 05:38 -3,9 C -3,1 C 4,2 C 0,0 C 66 % 1016,6 hPa 0,0 l/m 0,6 km/h (0 Bft) NO 45 -9,3 C -3,9 C 0,0 km/h (0 Bft)
02.04.2020 05:36 -3,9 C -3,1 C 4,2 C 0,0 C 66 % 1016,6 hPa 0,0 l/m 0,8 km/h (0 Bft) NO 45 -9,3 C -3,9 C 2,1 km/h (1 Bft)
02.04.2020 05:34 -3,9 C -2,9 C 4,2 C 0,0 C 66 % 1016,6 hPa 0,0 l/m 0,8 km/h (0 Bft) W 270 -9,3 C -3,9 C 2,5 km/h (1 Bft)
02.04.2020 05:32 -3,9 C -2,9 C 4,2 C 0,0 C 66 % 1016,6 hPa 0,0 l/m 0,6 km/h (0 Bft) N-NO 22 -9,3 C -3,9 C 2,1 km/h (1 Bft)
02.04.2020 05:30 -3,9 C -2,9 C 4,2 C 0,0 C 66 % 1016,8 hPa 0,0 l/m 0,6 km/h (0 Bft) O-SO 112 -9,3 C -3,9 C 0,0 km/h (0 Bft)
02.04.2020 05:28 -3,9 C -2,9 C 4,2 C 0,0 C 66 % 1016,8 hPa 0,0 l/m 0,8 km/h (0 Bft) N 360 -9,3 C -3,9 C 0,0 km/h (0 Bft)
02.04.2020 05:26 -3,9 C -2,9 C 4,2 C 0,0 C 66 % 1016,8 hPa 0,0 l/m 0,6 km/h (0 Bft) SO 135 -9,3 C -3,9 C 3,1 km/h (1 Bft)
02.04.2020 05:24 -3,7 C -2,8 C 4,2 C 0,0 C 66 % 1016,8 hPa 0,0 l/m 0,5 km/h (0 Bft) NO 45 -9,1 C -3,7 C 0,0 km/h (0 Bft)
02.04.2020 05:22 -3,7 C -2,8 C 4,2 C 0,0 C 66 % 1016,8 hPa 0,0 l/m 0,5 km/h (0 Bft) NO 45 -9,1 C -3,7 C 3,3 km/h (1 Bft)
02.04.2020 05:20 -3,7 C -2,8 C 4,3 C 0,0 C 66 % 1016,8 hPa 0,0 l/m 0,5 km/h (0 Bft) O-NO 67 -9,1 C -3,7 C 0,0 km/h (0 Bft)
02.04.2020 05:18 -3,7 C -2,8 C 4,2 C 0,0 C 66 % 1016,8 hPa 0,0 l/m 0,6 km/h (0 Bft) N 360 -9,1 C -3,7 C 2,7 km/h (1 Bft)
02.04.2020 05:16 -3,7 C -2,8 C 4,2 C 0,0 C 66 % 1016,8 hPa 0,0 l/m 0,5 km/h (0 Bft) SW 225 -9,1 C -3,7 C 0,0 km/h (0 Bft)
02.04.2020 05:14 -3,7 C -2,7 C 4,2 C 0,0 C 66 % 1016,8 hPa 0,0 l/m 0,8 km/h (0 Bft) O-NO 67 -9,1 C -3,7 C 0,0 km/h (0 Bft)
02.04.2020 05:12 -3,7 C -2,7 C 4,2 C 0,0 C 66 % 1016,8 hPa 0,0 l/m 1,3 km/h (1 Bft) NO 45 -9,1 C -3,7 C 0,0 km/h (0 Bft)
02.04.2020 05:10 -3,7 C -2,7 C 4,3 C 0,0 C 66 % 1016,6 hPa 0,0 l/m 1,0 km/h (0 Bft) NO 45 -9,1 C -3,7 C 2,3 km/h (1 Bft)
02.04.2020 05:08 -3,7 C -2,8 C 4,3 C 0,0 C 66 % 1016,6 hPa 0,0 l/m 1,0 km/h (0 Bft) O 90 -9,1 C -3,7 C 2,3 km/h (1 Bft)
02.04.2020 05:06 -3,7 C -2,7 C 4,3 C 0,0 C 66 % 1016,6 hPa 0,0 l/m 0,8 km/h (0 Bft) O-NO 67 -9,1 C -3,7 C 0,0 km/h (0 Bft)
02.04.2020 05:04 -3,7 C -2,8 C 4,3 C 0,0 C 66 % 1016,6 hPa 0,0 l/m 0,8 km/h (0 Bft) O-NO 67 -9,1 C -3,7 C 3,7 km/h (1 Bft)
02.04.2020 05:02 -3,6 C -2,7 C 4,3 C 0,0 C 66 % 1016,6 hPa 0,0 l/m 0,3 km/h (0 Bft) N-NO 22 -9,0 C -3,6 C 3,3 km/h (1 Bft)
02.04.2020 05:00 -3,6 C -2,7 C 4,3 C 0,0 C 66 % 1016,6 hPa 0,0 l/m 0,3 km/h (0 Bft) NO 45 -9,0 C -3,6 C 0,0 km/h (0 Bft)
02.04.2020 04:58 -3,6 C -2,7 C 4,3 C 0,0 C 66 % 1016,6 hPa 0,0 l/m 0,3 km/h (0 Bft) NO 45 -9,0 C -3,6 C 0,0 km/h (0 Bft)
02.04.2020 04:56 -3,6 C -2,7 C 4,3 C 0,0 C 66 % 1016,6 hPa 0,0 l/m 0,3 km/h (0 Bft) N-NO 22 -9,0 C -3,6 C 2,1 km/h (1 Bft)
02.04.2020 04:54 -3,6 C -2,7 C 4,3 C 0,0 C 66 % 1016,6 hPa 0,0 l/m 0,3 km/h (0 Bft) NW 315 -9,0 C -3,6 C 0,0 km/h (0 Bft)
02.04.2020 04:52 -3,6 C -2,7 C 4,3 C 0,0 C 66 % 1016,6 hPa 0,0 l/m 0,3 km/h (0 Bft) NO 45 -9,0 C -3,6 C 0,0 km/h (0 Bft)
02.04.2020 04:50 -3,6 C -2,7 C 4,3 C 0,0 C 65 % 1016,6 hPa 0,0 l/m 0,6 km/h (0 Bft) NO 45 -9,2 C -3,6 C 2,1 km/h (1 Bft)
02.04.2020 04:48 -3,6 C -2,5 C 4,3 C 0,0 C 65 % 1016,6 hPa 0,0 l/m 0,8 km/h (0 Bft) N-NO 22 -9,2 C -3,6 C 0,0 km/h (0 Bft)
02.04.2020 04:46 -3,5 C -2,7 C 4,3 C 0,0 C 65 % 1016,6 hPa 0,0 l/m 0,8 km/h (0 Bft) N-NO 22 -9,1 C -3,5 C 0,0 km/h (0 Bft)
02.04.2020 04:44 -3,5 C -2,7 C 4,3 C 0,0 C 65 % 1016,6 hPa 0,0 l/m 1,0 km/h (0 Bft) O 90 -9,1 C -3,5 C 0,0 km/h (0 Bft)
02.04.2020 04:42 -3,5 C -2,7 C 4,3 C 0,0 C 65 % 1016,6 hPa 0,0 l/m 1,0 km/h (0 Bft) NO 45 -9,1 C -3,5 C 2,3 km/h (1 Bft)
02.04.2020 04:40 -3,5 C -2,5 C 4,3 C 0,0 C 65 % 1016,6 hPa 0,0 l/m 0,8 km/h (0 Bft) NO 45 -9,1 C -3,5 C 3,3 km/h (1 Bft)
02.04.2020 04:38 -3,5 C -2,7 C 4,3 C 0,0 C 65 % 1016,6 hPa 0,0 l/m 0,5 km/h (0 Bft) N-NO 22 -9,1 C -3,5 C 0,0 km/h (0 Bft)
02.04.2020 04:36 -3,5 C -2,7 C 4,3 C 0,0 C 65 % 1016,6 hPa 0,0 l/m 0,6 km/h (0 Bft) SW 225 -9,1 C -3,5 C 0,0 km/h (0 Bft)
02.04.2020 04:34 -3,5 C -2,4 C 4,3 C 0,0 C 65 % 1016,6 hPa 0,0 l/m 0,6 km/h (0 Bft) N 360 -9,1 C -3,5 C 0,0 km/h (0 Bft)
02.04.2020 04:32 -3,5 C -2,4 C 4,3 C 0,0 C 65 % 1016,6 hPa 0,0 l/m 0,8 km/h (0 Bft) W 270 -9,1 C -3,5 C 0,0 km/h (0 Bft)
02.04.2020 04:30 -3,5 C -2,4 C 4,3 C 0,0 C 65 % 1016,6 hPa 0,0 l/m 1,0 km/h (0 Bft) N-NW 337 -9,1 C -3,5 C 0,0 km/h (0 Bft)
02.04.2020 04:28 -3,5 C -2,5 C 4,3 C 0,0 C 65 % 1016,6 hPa 0,0 l/m 1,1 km/h (1 Bft) N-NO 22 -9,1 C -3,5 C 0,0 km/h (0 Bft)
02.04.2020 04:26 -3,4 C -2,4 C 4,3 C 0,0 C 65 % 1016,6 hPa 0,0 l/m 1,1 km/h (1 Bft) O 90 -9,0 C -3,4 C 0,0 km/h (0 Bft)
02.04.2020 04:24 -3,4 C -2,4 C 4,3 C 0,0 C 65 % 1016,6 hPa 0,0 l/m 1,0 km/h (0 Bft) NO 45 -9,0 C -3,4 C 0,0 km/h (0 Bft)
02.04.2020 04:22 -3,4 C -2,4 C 4,3 C 0,0 C 65 % 1016,6 hPa 0,0 l/m 1,0 km/h (0 Bft) N-NO 22 -9,0 C -3,4 C 2,1 km/h (1 Bft)
02.04.2020 04:20 -3,4 C -2,4 C 4,3 C 0,0 C 65 % 1016,6 hPa 0,0 l/m 0,8 km/h (0 Bft) NO 45 -9,0 C -3,4 C 4,1 km/h (1 Bft)
02.04.2020 04:18 -3,4 C -2,4 C 4,3 C 0,0 C 65 % 1016,6 hPa 0,0 l/m 0,5 km/h (0 Bft) N-NW 337 -9,0 C -3,4 C 2,3 km/h (1 Bft)
02.04.2020 04:16 -3,4 C -2,4 C 4,3 C 0,0 C 65 % 1016,6 hPa 0,0 l/m 1,0 km/h (0 Bft) N 360 -9,0 C -3,4 C 2,1 km/h (1 Bft)
02.04.2020 04:14 -3,2 C -2,4 C 4,3 C 0,0 C 65 % 1016,6 hPa 0,0 l/m 0,6 km/h (0 Bft) NO 45 -8,8 C -3,2 C 0,0 km/h (0 Bft)
02.04.2020 04:12 -3,2 C -2,4 C 4,3 C 0,0 C 65 % 1016,6 hPa 0,0 l/m 1,0 km/h (0 Bft) N 360 -8,8 C -3,2 C 0,0 km/h (0 Bft)
02.04.2020 04:10 -3,2 C -2,3 C 4,3 C 0,0 C 65 % 1016,4 hPa 0,0 l/m 1,0 km/h (0 Bft) O-NO 67 -8,8 C -3,2 C 0,0 km/h (0 Bft)
02.04.2020 04:08 -3,2 C -2,3 C 4,3 C 0,0 C 65 % 1016,4 hPa 0,0 l/m 1,0 km/h (0 Bft) NO 45 -8,8 C -3,2 C 0,0 km/h (0 Bft)
02.04.2020 04:06 -3,1 C -2,3 C 4,4 C 0,0 C 65 % 1016,4 hPa 0,0 l/m 0,8 km/h (0 Bft) O-NO 67 -8,7 C -3,1 C 4,1 km/h (1 Bft)
02.04.2020 04:04 -3,1 C -2,1 C 4,3 C 0,0 C 65 % 1016,4 hPa 0,0 l/m 0,3 km/h (0 Bft) NO 45 -8,7 C -3,1 C 0,0 km/h (0 Bft)
02.04.2020 04:02 -3,1 C -2,1 C 4,4 C 0,0 C 65 % 1016,4 hPa 0,0 l/m 0,2 km/h (0 Bft) O-NO 67 -8,7 C -3,1 C 3,5 km/h (1 Bft)
02.04.2020 04:00 -3,1 C -2,3 C 4,4 C 0,0 C 65 % 1016,4 hPa 0,0 l/m 0,2 km/h (0 Bft) NO 45 -8,7 C -3,1 C 0,0 km/h (0 Bft)
02.04.2020 03:58 -3,1 C -2,1 C 4,4 C 0,0 C 65 % 1016,4 hPa 0,0 l/m 0,3 km/h (0 Bft) NO 45 -8,7 C -3,1 C 0,0 km/h (0 Bft)
02.04.2020 03:56 -3,1 C -2,1 C 4,4 C 0,0 C 65 % 1016,4 hPa 0,0 l/m 0,6 km/h (0 Bft) O-NO 67 -8,7 C -3,1 C 0,0 km/h (0 Bft)
02.04.2020 03:54 -3,1 C -2,1 C 4,4 C 0,0 C 65 % 1016,4 hPa 0,0 l/m 0,8 km/h (0 Bft) O 90 -8,7 C -3,1 C 0,0 km/h (0 Bft)
02.04.2020 03:52 -3,1 C -2,1 C 4,4 C 0,0 C 65 % 1016,4 hPa 0,0 l/m 0,8 km/h (0 Bft) O-SO 112 -8,7 C -3,1 C 0,0 km/h (0 Bft)
02.04.2020 03:50 -3,1 C -2,3 C 4,4 C 0,0 C 65 % 1016,9 hPa 0,0 l/m 0,8 km/h (0 Bft) N-NO 22 -8,7 C -3,1 C 2,5 km/h (1 Bft)
02.04.2020 03:48 -3,1 C -2,1 C 4,4 C 0,0 C 65 % 1016,9 hPa 0,0 l/m 0,5 km/h (0 Bft) N-NO 22 -8,7 C -3,1 C 0,0 km/h (0 Bft)
02.04.2020 03:46 -3,1 C -2,1 C 4,4 C 0,0 C 65 % 1016,9 hPa 0,0 l/m 0,6 km/h (0 Bft) NO 45 -8,7 C -3,1 C 2,7 km/h (1 Bft)
02.04.2020 03:44 -3,0 C -2,1 C 4,4 C 0,0 C 65 % 1016,9 hPa 0,0 l/m 0,3 km/h (0 Bft) NO 45 -8,6 C -3,0 C 0,0 km/h (0 Bft)
02.04.2020 03:42 -3,0 C -2,1 C 4,4 C 0,0 C 65 % 1016,9 hPa 0,0 l/m 0,3 km/h (0 Bft) NO 45 -8,6 C -3,0 C 1,9 km/h (1 Bft)
02.04.2020 03:40 -3,0 C -2,1 C 4,4 C 0,0 C 65 % 1016,9 hPa 0,0 l/m 0,5 km/h (0 Bft) O-NO 67 -8,6 C -3,0 C 0,0 km/h (0 Bft)
02.04.2020 03:38 -3,0 C -2,1 C 4,4 C 0,0 C 65 % 1016,9 hPa 0,0 l/m 0,5 km/h (0 Bft) O-NO 67 -8,6 C -3,0 C 0,0 km/h (0 Bft)
02.04.2020 03:36 -3,0 C -2,1 C 4,4 C 0,0 C 65 % 1016,9 hPa 0,0 l/m 0,2 km/h (0 Bft) NO 45 -8,6 C -3,0 C 1,9 km/h (1 Bft)
02.04.2020 03:34 -3,0 C -2,1 C 4,4 C 0,0 C 65 % 1016,9 hPa 0,0 l/m 0,3 km/h (0 Bft) N-NO 22 -8,6 C -3,0 C 0,0 km/h (0 Bft)
02.04.2020 03:32 -3,0 C -2,0 C 4,4 C 0,0 C 65 % 1016,9 hPa 0,0 l/m 0,3 km/h (0 Bft) N-NO 22 -8,6 C -3,0 C 0,0 km/h (0 Bft)
02.04.2020 03:30 -3,0 C -2,0 C 4,4 C 0,0 C 65 % 1016,9 hPa 0,0 l/m 0,2 km/h (0 Bft) NO 45 -8,6 C -3,0 C 2,5 km/h (1 Bft)
02.04.2020 03:28 -3,0 C -2,0 C 4,4 C 0,0 C 65 % 1016,9 hPa 0,0 l/m 0,2 km/h (0 Bft) N 360 -8,6 C -3,0 C 0,0 km/h (0 Bft)
02.04.2020 03:26 -2,8 C -2,0 C 4,4 C 0,0 C 65 % 1016,9 hPa 0,0 l/m 0,2 km/h (0 Bft) O-NO 67 -8,4 C -2,8 C 0,0 km/h (0 Bft)
02.04.2020 03:24 -2,8 C -2,0 C 4,4 C 0,0 C 65 % 1016,9 hPa 0,0 l/m 0,3 km/h (0 Bft) NO 45 -8,4 C -2,8 C 0,0 km/h (0 Bft)
02.04.2020 03:22 -2,8 C -2,0 C 4,4 C 0,0 C 65 % 1016,9 hPa 0,0 l/m 0,3 km/h (0 Bft) N-NO 22 -8,4 C -2,8 C 0,0 km/h (0 Bft)
02.04.2020 03:20 -2,8 C -2,0 C 4,4 C 0,0 C 65 % 1016,9 hPa 0,0 l/m 0,3 km/h (0 Bft) N-NO 22 -8,4 C -2,8 C 0,0 km/h (0 Bft)
02.04.2020 03:18 -2,8 C -2,0 C 4,4 C 0,0 C 65 % 1016,9 hPa 0,0 l/m 0,3 km/h (0 Bft) SW 225 -8,4 C -2,8 C 0,0 km/h (0 Bft)
02.04.2020 03:16 -2,8 C -1,8 C 4,4 C 0,0 C 64 % 1016,9 hPa 0,0 l/m 0,3 km/h (0 Bft) S 180 -8,6 C -2,8 C 0,0 km/h (0 Bft)
02.04.2020 03:14 -2,7 C -1,8 C 4,4 C 0,0 C 64 % 1016,9 hPa 0,0 l/m 0,3 km/h (0 Bft) O 90 -8,5 C -2,7 C 2,5 km/h (1 Bft)
02.04.2020 03:12 -2,7 C -1,8 C 4,4 C 0,0 C 64 % 1016,9 hPa 0,0 l/m 0,2 km/h (0 Bft) NO 45 -8,5 C -2,7 C 2,9 km/h (1 Bft)
02.04.2020 03:10 -2,7 C -1,8 C 4,4 C 0,0 C 64 % 1016,9 hPa 0,0 l/m 0,2 km/h (0 Bft) NO 45 -8,5 C -2,7 C 0,0 km/h (0 Bft)
02.04.2020 03:08 -2,7 C -1,8 C 4,4 C 0,0 C 64 % 1016,9 hPa 0,0 l/m 0,2 km/h (0 Bft) NO 45 -8,5 C -2,7 C 0,0 km/h (0 Bft)
02.04.2020 03:06 -2,7 C -1,8 C 4,4 C 0,0 C 64 % 1016,9 hPa 0,0 l/m 0,2 km/h (0 Bft) NO 45 -8,5 C -2,7 C 0,0 km/h (0 Bft)
02.04.2020 03:04 -2,7 C -1,8 C 4,4 C 0,0 C 64 % 1016,9 hPa 0,0 l/m 0,2 km/h (0 Bft) NO 45 -8,5 C -2,7 C 0,0 km/h (0 Bft)
02.04.2020 03:02 -2,7 C -1,8 C 4,4 C 0,0 C 64 % 1016,9 hPa 0,0 l/m 0,2 km/h (0 Bft) NO 45 -8,5 C -2,7 C 0,0 km/h (0 Bft)
02.04.2020 03:00 -2,7 C -1,8 C 4,5 C 0,0 C 64 % 1016,9 hPa 0,0 l/m 0,2 km/h (0 Bft) NO 45 -8,5 C -2,7 C 0,0 km/h (0 Bft)
02.04.2020 02:58 -2,7 C -1,7 C 4,4 C 0,0 C 64 % 1016,9 hPa 0,0 l/m 0,2 km/h (0 Bft) W-SW 247 -8,5 C -2,7 C 0,0 km/h (0 Bft)
02.04.2020 02:56 -2,7 C -1,7 C 4,4 C 0,0 C 64 % 1016,9 hPa 0,0 l/m 0,3 km/h (0 Bft) N-NO 22 -8,5 C -2,7 C 1,9 km/h (1 Bft)
02.04.2020 02:54 -2,7 C -1,7 C 4,5 C 0,0 C 64 % 1016,9 hPa 0,0 l/m 0,5 km/h (0 Bft) NO 45 -8,5 C -2,7 C 1,9 km/h (1 Bft)
02.04.2020 02:52 -2,7 C -1,7 C 4,5 C 0,0 C 64 % 1016,9 hPa 0,0 l/m 0,6 km/h (0 Bft) O-NO 67 -8,5 C -2,7 C 0,0 km/h (0 Bft)
02.04.2020 02:50 -2,7 C -1,8 C 4,5 C 0,0 C 64 % 1017,1 hPa 0,0 l/m 0,8 km/h (0 Bft) O-SO 112 -8,5 C -2,7 C 0,0 km/h (0 Bft)
02.04.2020 02:48 -2,7 C -1,8 C 4,5 C 0,0 C 64 % 1017,1 hPa 0,0 l/m 0,8 km/h (0 Bft) SW 225 -8,5 C -2,7 C 0,0 km/h (0 Bft)
02.04.2020 02:46 -2,7 C -1,7 C 4,5 C 0,0 C 64 % 1017,1 hPa 0,0 l/m 0,8 km/h (0 Bft) NO 45 -8,5 C -2,7 C 2,3 km/h (1 Bft)
02.04.2020 02:44 -2,6 C -1,7 C 4,5 C 0,0 C 64 % 1017,1 hPa 0,0 l/m 0,8 km/h (0 Bft) N-NO 22 -8,4 C -2,6 C 2,5 km/h (1 Bft)
02.04.2020 02:42 -2,6 C -1,7 C 4,5 C 0,0 C 63 % 1017,1 hPa 0,0 l/m 0,6 km/h (0 Bft) O-NO 67 -8,6 C -2,6 C 0,0 km/h (0 Bft)
02.04.2020 02:40 -2,6 C -1,7 C 4,5 C 0,0 C 63 % 1017,1 hPa 0,0 l/m 0,6 km/h (0 Bft) NO 45 -8,6 C -2,6 C 2,3 km/h (1 Bft)
02.04.2020 02:38 -2,6 C -1,7 C 4,5 C 0,0 C 63 % 1017,1 hPa 0,0 l/m 0,5 km/h (0 Bft) NO 45 -8,6 C -2,6 C 2,3 km/h (1 Bft)
02.04.2020 02:36 -2,6 C -1,7 C 4,5 C 0,0 C 63 % 1017,1 hPa 0,0 l/m 0,6 km/h (0 Bft) O-NO 67 -8,6 C -2,6 C 0,0 km/h (0 Bft)
02.04.2020 02:34 -2,6 C -1,7 C 4,5 C 0,0 C 63 % 1017,1 hPa 0,0 l/m 0,6 km/h (0 Bft) NO 45 -8,6 C -2,6 C 2,5 km/h (1 Bft)
02.04.2020 02:32 -2,4 C -1,7 C 4,5 C 0,0 C 63 % 1017,1 hPa 0,0 l/m 0,6 km/h (0 Bft) NO 45 -8,5 C -2,4 C 2,7 km/h (1 Bft)
02.04.2020 02:30 -2,4 C -1,7 C 4,5 C 0,0 C 63 % 1017,2 hPa 0,0 l/m 1,0 km/h (0 Bft) N-NO 22 -8,5 C -2,4 C 1,9 km/h (1 Bft)
02.04.2020 02:28 -2,4 C -1,6 C 4,5 C 0,0 C 63 % 1017,2 hPa 0,0 l/m 1,1 km/h (1 Bft) N-NW 337 -8,5 C -2,4 C 0,0 km/h (0 Bft)
02.04.2020 02:26 -2,4 C -1,6 C 4,5 C 0,0 C 63 % 1017,2 hPa 0,0 l/m 1,3 km/h (1 Bft) O-NO 67 -8,5 C -2,4 C 2,3 km/h (1 Bft)
02.04.2020 02:24 -2,3 C -1,6 C 4,5 C 0,0 C 63 % 1017,2 hPa 0,0 l/m 1,3 km/h (1 Bft) W 270 -8,4 C -2,3 C 0,0 km/h (0 Bft)
02.04.2020 02:22 -2,3 C -1,5 C 4,5 C 0,0 C 63 % 1017,2 hPa 0,0 l/m 1,3 km/h (1 Bft) NO 45 -8,4 C -2,3 C 3,3 km/h (1 Bft)
02.04.2020 02:20 -2,3 C -1,5 C 4,5 C 0,0 C 63 % 1017,2 hPa 0,0 l/m 1,0 km/h (0 Bft) NO 45 -8,4 C -2,3 C 3,9 km/h (1 Bft)
02.04.2020 02:18 -2,3 C -1,5 C 4,5 C 0,0 C 63 % 1017,2 hPa 0,0 l/m 0,5 km/h (0 Bft) NO 45 -8,4 C -2,3 C 2,1 km/h (1 Bft)
02.04.2020 02:16 -2,2 C -1,5 C 4,5 C 0,0 C 63 % 1017,2 hPa 0,0 l/m 0,6 km/h (0 Bft) NO 45 -8,3 C -2,2 C 3,3 km/h (1 Bft)
02.04.2020 02:14 -2,2 C -1,5 C 4,5 C 0,0 C 63 % 1017,2 hPa 0,0 l/m 0,5 km/h (0 Bft) NO 45 -8,3 C -2,2 C 2,1 km/h (1 Bft)
02.04.2020 02:12 -2,2 C -1,5 C 4,5 C 0,0 C 63 % 1017,2 hPa 0,0 l/m 0,5 km/h (0 Bft) N 360 -8,3 C -2,2 C 0,0 km/h (0 Bft)
02.04.2020 02:10 -2,2 C -1,3 C 4,5 C 0,0 C 63 % 1017,6 hPa 0,0 l/m 0,5 km/h (0 Bft) O-NO 67 -8,3 C -2,2 C 0,0 km/h (0 Bft)
02.04.2020 02:08 -2,2 C -1,3 C 4,5 C 0,0 C 63 % 1017,6 hPa 0,0 l/m 0,5 km/h (0 Bft) O-SO 112 -8,3 C -2,2 C 0,0 km/h (0 Bft)
02.04.2020 02:06 -2,0 C -1,3 C 4,5 C 0,0 C 63 % 1017,6 hPa 0,0 l/m 0,2 km/h (0 Bft) N 360 -8,1 C -2,0 C 2,5 km/h (1 Bft)
02.04.2020 02:04 -2,0 C -1,5 C 4,5 C 0,0 C 63 % 1017,6 hPa 0,0 l/m 0,0 km/h (0 Bft) N 360 -8,1 C -2,0 C 0,0 km/h (0 Bft)
02.04.2020 02:02 -2,0 C -1,3 C 4,5 C 0,0 C 63 % 1017,6 hPa 0,0 l/m 0,3 km/h (0 Bft) NW 315 -8,1 C -2,0 C 0,0 km/h (0 Bft)
02.04.2020 02:00 -2,0 C -1,2 C 4,5 C 0,0 C 63 % 1017,6 hPa 0,0 l/m 0,6 km/h (0 Bft) O-SO 112 -8,1 C -2,0 C 0,0 km/h (0 Bft)
02.04.2020 01:58 -2,0 C -1,2 C 4,5 C 0,0 C 63 % 1017,6 hPa 0,0 l/m 0,6 km/h (0 Bft) NO 45 -8,1 C -2,0 C 0,0 km/h (0 Bft)
02.04.2020 01:56 -2,0 C -1,2 C 4,5 C 0,0 C 63 % 1017,6 hPa 0,0 l/m 0,8 km/h (0 Bft) N-NW 337 -8,1 C -2,0 C 0,0 km/h (0 Bft)
02.04.2020 01:54 -2,0 C -1,2 C 4,5 C 0,0 C 63 % 1017,6 hPa 0,0 l/m 1,1 km/h (1 Bft) O-SO 112 -8,1 C -2,0 C 0,0 km/h (0 Bft)
02.04.2020 01:52 -2,0 C -1,2 C 4,6 C 0,0 C 63 % 1017,6 hPa 0,0 l/m 1,4 km/h (1 Bft) O-NO 67 -8,1 C -2,0 C 3,3 km/h (1 Bft)
02.04.2020 01:50 -2,0 C -1,2 C 4,6 C 0,0 C 63 % 1017,5 hPa 0,0 l/m 1,4 km/h (1 Bft) N-NO 22 -8,1 C -2,0 C 2,5 km/h (1 Bft)
02.04.2020 01:48 -2,0 C -1,2 C 4,6 C 0,0 C 63 % 1017,5 hPa 0,0 l/m 1,4 km/h (1 Bft) N 360 -8,1 C -2,0 C 0,0 km/h (0 Bft)
02.04.2020 01:46 -1,9 C -1,2 C 4,6 C 0,0 C 63 % 1017,5 hPa 0,0 l/m 1,4 km/h (1 Bft) N-NW 337 -8,0 C -1,9 C 3,7 km/h (1 Bft)
02.04.2020 01:44 -1,9 C -1,2 C 4,6 C 0,0 C 63 % 1017,5 hPa 0,0 l/m 1,1 km/h (1 Bft) N-NO 22 -8,0 C -1,9 C 2,9 km/h (1 Bft)
02.04.2020 01:42 -1,9 C -1,1 C 4,6 C 0,0 C 63 % 1017,5 hPa 0,0 l/m 1,1 km/h (1 Bft) N 360 -8,0 C -1,9 C 1,9 km/h (1 Bft)
02.04.2020 01:40 -1,8 C -1,1 C 4,6 C 0,0 C 63 % 1017,5 hPa 0,0 l/m 0,6 km/h (0 Bft) N 360 -7,9 C -1,8 C 2,7 km/h (1 Bft)
02.04.2020 01:38 -1,8 C -1,1 C 4,6 C 0,0 C 63 % 1017,5 hPa 0,0 l/m 0,5 km/h (0 Bft) N 360 -7,9 C -1,8 C 1,9 km/h (1 Bft)
02.04.2020 01:36 -1,8 C -1,1 C 4,6 C 0,0 C 63 % 1017,5 hPa 0,0 l/m 0,5 km/h (0 Bft) N-NO 22 -7,9 C -1,8 C 0,0 km/h (0 Bft)
02.04.2020 01:34 -1,8 C -0,9 C 4,6 C 0,0 C 63 % 1017,5 hPa 0,0 l/m 0,3 km/h (0 Bft) O-SO 112 -7,9 C -1,8 C 0,0 km/h (0 Bft)
02.04.2020 01:32 -1,8 C -0,9 C 4,6 C 0,0 C 63 % 1017,5 hPa 0,0 l/m 0,2 km/h (0 Bft) N-NO 22 -7,9 C -1,8 C 2,5 km/h (1 Bft)
02.04.2020 01:30 -1,8 C -0,9 C 4,6 C 0,0 C 63 % 1017,6 hPa 0,0 l/m 0,0 km/h (0 Bft) W-SW 247 -7,9 C -1,8 C 0,0 km/h (0 Bft)
02.04.2020 01:28 -1,6 C -0,9 C 4,6 C 0,0 C 63 % 1017,6 hPa 0,0 l/m 0,6 km/h (0 Bft) N 360 -7,7 C -1,6 C 0,0 km/h (0 Bft)
02.04.2020 01:26 -1,6 C -0,9 C 4,6 C 0,0 C 63 % 1017,6 hPa 0,0 l/m 1,0 km/h (0 Bft) N-NW 337 -7,7 C -1,6 C 0,0 km/h (0 Bft)
02.04.2020 01:24 -1,6 C -0,9 C 4,6 C 0,0 C 63 % 1017,6 hPa 0,0 l/m 1,3 km/h (1 Bft) O-SO 112 -7,7 C -1,6 C 0,0 km/h (0 Bft)
02.04.2020 01:22 -1,6 C -0,9 C 4,6 C 0,0 C 63 % 1017,6 hPa 0,0 l/m 1,6 km/h (1 Bft) NO 45 -7,7 C -1,6 C 0,0 km/h (0 Bft)
02.04.2020 01:20 -1,6 C -0,8 C 4,6 C 0,0 C 63 % 1017,6 hPa 0,0 l/m 1,8 km/h (1 Bft) W 270 -7,7 C -1,6 C 0,0 km/h (0 Bft)
02.04.2020 01:18 -1,5 C -0,8 C 4,6 C 0,0 C 63 % 1017,6 hPa 0,0 l/m 2,3 km/h (1 Bft) NO 45 -7,6 C -1,5 C 5,0 km/h (1 Bft)
02.04.2020 01:16 -1,5 C -0,8 C 4,6 C 0,0 C 63 % 1017,6 hPa 0,0 l/m 1,9 km/h (1 Bft) N-NW 337 -7,6 C -1,5 C 3,9 km/h (1 Bft)
02.04.2020 01:14 -1,5 C -0,6 C 4,6 C 0,0 C 63 % 1017,6 hPa 0,0 l/m 1,8 km/h (1 Bft) N 360 -7,6 C -1,5 C 3,5 km/h (1 Bft)
02.04.2020 01:12 -1,5 C -0,6 C 4,6 C 0,0 C 63 % 1017,6 hPa 0,0 l/m 1,4 km/h (1 Bft) N 360 -7,6 C -1,5 C 2,7 km/h (1 Bft)
02.04.2020 01:10 -1,5 C -0,6 C 4,6 C 0,0 C 63 % 1017,6 hPa 0,0 l/m 1,3 km/h (1 Bft) W-NW 292 -7,6 C -1,5 C 2,7 km/h (1 Bft)
02.04.2020 01:08 -1,4 C -0,6 C 4,6 C 0,0 C 63 % 1017,6 hPa 0,0 l/m 1,1 km/h (1 Bft) NO 45 -7,5 C -1,4 C 3,7 km/h (1 Bft)
02.04.2020 01:06 -1,4 C -0,6 C 4,6 C 0,0 C 63 % 1017,6 hPa 0,0 l/m 0,8 km/h (0 Bft) NO 45 -7,5 C -1,4 C 2,5 km/h (1 Bft)
02.04.2020 01:04 -1,4 C -0,6 C 4,6 C 0,0 C 63 % 1017,6 hPa 0,0 l/m 1,1 km/h (1 Bft) O-SO 112 -7,5 C -1,4 C 2,9 km/h (1 Bft)
02.04.2020 01:02 -1,4 C -0,6 C 4,6 C 0,0 C 63 % 1017,6 hPa 0,0 l/m 1,8 km/h (1 Bft) O-SO 112 -7,5 C -1,4 C 1,9 km/h (1 Bft)
02.04.2020 01:00 -1,4 C -0,5 C 4,6 C 0,0 C 63 % 1017,6 hPa 0,0 l/m 2,3 km/h (1 Bft) N-NW 337 -7,5 C -1,4 C 0,0 km/h (0 Bft)
02.04.2020 00:58 -1,4 C -0,5 C 4,6 C 0,0 C 63 % 1017,6 hPa 0,0 l/m 2,6 km/h (1 Bft) O-NO 67 -7,5 C -1,4 C 3,5 km/h (1 Bft)
02.04.2020 00:56 -1,4 C -0,5 C 4,6 C 0,0 C 63 % 1017,6 hPa 0,0 l/m 2,4 km/h (1 Bft) N-NW 337 -7,5 C -1,4 C 3,5 km/h (1 Bft)
02.04.2020 00:54 -1,4 C -0,5 C 4,7 C 0,0 C 63 % 1017,6 hPa 0,0 l/m 2,7 km/h (1 Bft) O 90 -7,5 C -1,4 C 5,2 km/h (1 Bft)
02.04.2020 00:52 -1,4 C -0,5 C 4,7 C 0,0 C 63 % 1017,6 hPa 0,0 l/m 2,6 km/h (1 Bft) O-SO 112 -7,5 C -1,4 C 5,2 km/h (1 Bft)
02.04.2020 00:50 -1,4 C -0,5 C 4,7 C 0,0 C 63 % 1017,9 hPa 0,0 l/m 2,1 km/h (1 Bft) NO 45 -7,5 C -1,4 C 2,7 km/h (1 Bft)
02.04.2020 00:48 -1,4 C -0,5 C 4,7 C 0,0 C 63 % 1017,9 hPa 0,0 l/m 1,9 km/h (1 Bft) NO 45 -7,5 C -1,4 C 3,5 km/h (1 Bft)
02.04.2020 00:46 -1,4 C -0,6 C 4,7 C 0,0 C 63 % 1017,9 hPa 0,0 l/m 1,4 km/h (1 Bft) NO 45 -7,5 C -1,4 C 0,0 km/h (0 Bft)
02.04.2020 00:44 -1,4 C -0,7 C 4,7 C 0,0 C 63 % 1017,9 hPa 0,0 l/m 1,1 km/h (1 Bft) O-SO 112 -7,5 C -1,4 C 5,2 km/h (1 Bft)
02.04.2020 00:42 -1,4 C -0,6 C 4,7 C 0,0 C 63 % 1017,9 hPa 0,0 l/m 0,6 km/h (0 Bft) O-NO 67 -7,5 C -1,4 C 4,6 km/h (1 Bft)
02.04.2020 00:40 -1,4 C -0,5 C 4,7 C 0,0 C 63 % 1017,9 hPa 0,0 l/m 0,6 km/h (0 Bft) N-NO 22 -7,5 C -1,4 C 2,3 km/h (1 Bft)
02.04.2020 00:38 -1,4 C -0,5 C 4,7 C 0,0 C 63 % 1017,9 hPa 0,0 l/m 1,0 km/h (0 Bft) NO 45 -7,5 C -1,4 C 2,5 km/h (1 Bft)
02.04.2020 00:36 -1,4 C -0,5 C 4,7 C 0,0 C 63 % 1017,9 hPa 0,0 l/m 1,1 km/h (1 Bft) N-NO 22 -7,5 C -1,4 C 0,0 km/h (0 Bft)
02.04.2020 00:34 -1,4 C -0,5 C 4,7 C 0,0 C 63 % 1017,9 hPa 0,0 l/m 1,4 km/h (1 Bft) O-SO 112 -7,5 C -1,4 C 0,0 km/h (0 Bft)
02.04.2020 00:32 -1,4 C -0,5 C 4,7 C 0,0 C 63 % 1017,9 hPa 0,0 l/m 2,3 km/h (1 Bft) O-NO 67 -7,5 C -1,4 C 3,5 km/h (1 Bft)
02.04.2020 00:30 -1,4 C -0,4 C 4,7 C 0,0 C 63 % 1017,9 hPa 0,0 l/m 2,3 km/h (1 Bft) NO 45 -7,5 C -1,4 C 0,0 km/h (0 Bft)
02.04.2020 00:28 -1,4 C -0,5 C 4,7 C 0,0 C 63 % 1017,9 hPa 0,0 l/m 1,9 km/h (1 Bft) NO 45 -7,5 C -1,4 C 3,1 km/h (1 Bft)
02.04.2020 00:26 -1,4 C -0,5 C 4,7 C 0,0 C 63 % 1017,9 hPa 0,0 l/m 1,8 km/h (1 Bft) NO 45 -7,5 C -1,4 C 2,3 km/h (1 Bft)
02.04.2020 00:24 -1,4 C -0,4 C 4,7 C 0,0 C 63 % 1017,9 hPa 0,0 l/m 1,4 km/h (1 Bft) O-NO 67 -7,5 C -1,4 C 3,3 km/h (1 Bft)
02.04.2020 00:22 -1,3 C -0,4 C 4,7 C 0,0 C 63 % 1017,9 hPa 0,0 l/m 0,8 km/h (0 Bft) NO 45 -7,4 C -1,3 C 5,0 km/h (1 Bft)
02.04.2020 00:20 -1,3 C -0,5 C 4,7 C 0,0 C 63 % 1017,9 hPa 0,0 l/m 0,5 km/h (0 Bft) NO 45 -7,4 C -1,3 C 2,7 km/h (1 Bft)
02.04.2020 00:18 -1,3 C -0,5 C 4,7 C 0,0 C 63 % 1017,9 hPa 0,0 l/m 0,5 km/h (0 Bft) NO 45 -7,4 C -1,3 C 0,0 km/h (0 Bft)
02.04.2020 00:16 -1,3 C -0,4 C 4,7 C 0,0 C 63 % 1017,9 hPa 0,0 l/m 0,5 km/h (0 Bft) NO 45 -7,4 C -1,3 C 2,5 km/h (1 Bft)
02.04.2020 00:14 -1,3 C -0,5 C 4,7 C 0,0 C 63 % 1017,9 hPa 0,0 l/m 0,3 km/h (0 Bft) NO 45 -7,4 C -1,3 C 0,0 km/h (0 Bft)
02.04.2020 00:12 -1,3 C -0,5 C 4,7 C 0,0 C 63 % 1017,9 hPa 0,0 l/m 0,8 km/h (0 Bft) NO 45 -7,4 C -1,3 C 3,5 km/h (1 Bft)
02.04.2020 00:10 -1,1 C -0,4 C 4,7 C 0,0 C 63 % 1018,1 hPa 0,0 l/m 0,8 km/h (0 Bft) NO 45 -7,2 C -1,1 C 3,5 km/h (1 Bft)
02.04.2020 00:09 -1,1 C -0,4 C 4,7 C 0,0 C 63 % 1018,1 hPa 0,0 l/m 0,8 km/h (0 Bft) NO 45 -7,2 C -1,1 C 3,5 km/h (1 Bft)
02.04.2020 00:06 -1,1 C -0,4 C 4,7 C 0,0 C 63 % 1018,1 hPa 0,0 l/m 0,8 km/h (0 Bft) NO 45 -7,2 C -1,1 C 3,5 km/h (1 Bft)
02.04.2020 00:04 -1,1 C -0,4 C 4,7 C 0,0 C 63 % 1018,1 hPa 0,0 l/m 0,8 km/h (0 Bft) NO 45 -7,2 C -1,1 C 3,5 km/h (1 Bft)
02.04.2020 00:02 -1,1 C -0,4 C 4,7 C 0,0 C 63 % 1018,1 hPa 0,0 l/m 0,8 km/h (0 Bft) NO 45 -7,2 C -1,1 C 3,5 km/h (1 Bft)
02.04.2020 00:00 -1,1 C -0,2 C 4,7 C 0,0 C 63 % 1018,1 hPa 0,0 l/m 0,6 km/h (0 Bft) N 360 -7,2 C -1,1 C 2,1 km/h (1 Bft)
_ Min-Zeit 06:36 06:24 08:54 00:00 14:16 17:32 - 01:30 - - 06:36 06:36 00:14
Minimum _ -4,4 C -3,3 C 3,8 C 0,0 C 34 % 1011,6 hPa - 0,0 km/h (0 Bft) - - -9,6 C -4,4 C 0,0 km/h (0 Bft)
_ Max-Zeit 17:02 15:12 17:06 00:00 07:08 00:00 00:00 12:32 - - 13:50 17:02 13:42
Maximum _ 15,4 C 27,0 C 5,5 C 0,0 C 68 % 1018,1 hPa 0,0 l/m 14,3 km/h
O-NO (3 Bft)
- - -0,1 C 15,4 C 30,7 km/h
NO (5 Bft)
Durchschnitt _ 4,0 C 9,2 C 4,4 C 0,0 C 54 % 1015,8 hPa #0,0 l/m 3,7 km/h (1 Bft) O-NO - -5,0 C 3,4 C 5,9 km/h (2 Bft)